Wetterdaten: Freitag, 02.01.2015
Datum Zeit Temp. Aussen +5cm Feuchte Auss Luftdruck Regen Sonnenschein Regendauer Solar Windben
02.01.2015 00:00 2,6 C 2,2 C 78 % 1027,2 hPa 0,0 l/m 0 min 0 min 0 W/m 14,6 km/h (3 Bft)
02.01.2015 00:02 2,7 C 2,2 C 78 % 1027,2 hPa 0,0 l/m 0 min 0 min 0 W/m 16,7 km/h (3 Bft)
02.01.2015 00:06 2,9 C 2,2 C 77 % 1027,2 hPa 0,0 l/m 0 min 0 min 0 W/m 14,6 km/h (3 Bft)
02.01.2015 00:08 3,0 C 2,2 C 76 % 1027,1 hPa 0,0 l/m 0 min 0 min 0 W/m 16,7 km/h (3 Bft)
02.01.2015 00:10 3,1 C 2,2 C 76 % 1027,0 hPa 0,0 l/m 0 min 0 min 0 W/m 18,8 km/h (3 Bft)
02.01.2015 00:12 3,2 C 2,2 C 75 % 1026,9 hPa 0,0 l/m 0 min 0 min 0 W/m 18,8 km/h (3 Bft)
02.01.2015 00:14 3,3 C 2,2 C 75 % 1026,8 hPa 0,0 l/m 0 min 0 min 0 W/m 18,8 km/h (3 Bft)
02.01.2015 00:16 3,3 C 2,2 C 75 % 1026,8 hPa 0,0 l/m 0 min 0 min 0 W/m 16,7 km/h (3 Bft)
02.01.2015 00:18 3,4 C 2,2 C 74 % 1026,8 hPa 0,0 l/m 0 min 0 min 0 W/m 16,7 km/h (3 Bft)
02.01.2015 00:20 3,5 C 2,2 C 74 % 1026,7 hPa 0,0 l/m 0 min 0 min 0 W/m 12,6 km/h (3 Bft)
02.01.2015 00:22 3,6 C 2,2 C 74 % 1026,7 hPa 0,0 l/m 0 min 0 min 0 W/m 23,0 km/h (4 Bft)
02.01.2015 00:24 3,6 C 2,2 C 73 % 1026,7 hPa 0,0 l/m 0 min 0 min 0 W/m 25,1 km/h (4 Bft)
02.01.2015 00:26 3,7 C 2,8 C 72 % 1026,7 hPa 0,0 l/m 0 min 0 min 0 W/m 29,3 km/h (5 Bft)
02.01.2015 00:28 3,8 C 2,8 C 72 % 1026,7 hPa 0,0 l/m 0 min 0 min 0 W/m 16,7 km/h (3 Bft)
02.01.2015 00:30 3,8 C 2,8 C 72 % 1026,7 hPa 0,0 l/m 0 min 0 min 0 W/m 23,0 km/h (4 Bft)
02.01.2015 00:32 3,9 C 2,8 C 71 % 1026,7 hPa 0,0 l/m 0 min 0 min 0 W/m 23,0 km/h (4 Bft)
02.01.2015 00:34 3,9 C 2,8 C 71 % 1026,5 hPa 0,0 l/m 0 min 0 min 0 W/m 43,9 km/h (6 Bft)
02.01.2015 00:36 4,0 C 2,8 C 70 % 1026,5 hPa 0,0 l/m 0 min 0 min 0 W/m 25,1 km/h (4 Bft)
02.01.2015 00:38 4,1 C 2,8 C 70 % 1026,5 hPa 0,0 l/m 0 min 0 min 0 W/m 37,7 km/h (5 Bft)
02.01.2015 00:40 4,2 C 2,8 C 69 % 1026,6 hPa 0,0 l/m 0 min 0 min 0 W/m 33,5 km/h (5 Bft)
02.01.2015 00:42 4,2 C 2,8 C 69 % 1026,4 hPa 0,0 l/m 0 min 0 min 0 W/m 35,6 km/h (5 Bft)
02.01.2015 00:44 4,3 C 2,8 C 69 % 1026,3 hPa 0,0 l/m 0 min 0 min 0 W/m 29,3 km/h (5 Bft)
02.01.2015 00:46 4,3 C 2,8 C 68 % 1026,4 hPa 0,0 l/m 0 min 0 min 0 W/m 16,7 km/h (3 Bft)
02.01.2015 00:48 4,4 C 2,8 C 69 % 1026,3 hPa 0,0 l/m 0 min 0 min 0 W/m 35,6 km/h (5 Bft)
02.01.2015 00:50 4,4 C 2,8 C 68 % 1026,1 hPa 0,0 l/m 0 min 0 min 0 W/m 33,5 km/h (5 Bft)
02.01.2015 00:52 4,4 C 2,8 C 68 % 1026,1 hPa 0,0 l/m 0 min 0 min 0 W/m 33,5 km/h (5 Bft)
02.01.2015 00:54 4,4 C 2,8 C 68 % 1026,0 hPa 0,0 l/m 0 min 0 min 0 W/m 33,5 km/h (5 Bft)
02.01.2015 00:56 4,5 C 2,8 C 68 % 1026,0 hPa 0,0 l/m 0 min 0 min 0 W/m 27,2 km/h (4 Bft)
02.01.2015 00:58 4,6 C 2,8 C 68 % 1026,0 hPa 0,0 l/m 0 min 0 min 0 W/m 27,2 km/h (4 Bft)
02.01.2015 01:00 4,6 C 2,8 C 68 % 1025,9 hPa 0,0 l/m 0 min 0 min 0 W/m 33,5 km/h (5 Bft)
02.01.2015 01:02 4,6 C 2,8 C 67 % 1026,0 hPa 0,0 l/m 0 min 0 min 0 W/m 37,7 km/h (5 Bft)
02.01.2015 01:04 4,6 C 2,8 C 67 % 1026,0 hPa 0,0 l/m 0 min 0 min 0 W/m 39,7 km/h (6 Bft)
02.01.2015 01:06 4,6 C 2,8 C 67 % 1025,9 hPa 0,0 l/m 0 min 0 min 0 W/m 23,0 km/h (4 Bft)
02.01.2015 01:08 4,6 C 2,8 C 67 % 1025,9 hPa 0,0 l/m 0 min 0 min 0 W/m 20,9 km/h (4 Bft)
02.01.2015 01:10 4,6 C 2,8 C 67 % 1025,9 hPa 0,0 l/m 0 min 0 min 0 W/m 27,2 km/h (4 Bft)
02.01.2015 01:12 4,6 C 2,8 C 67 % 1025,9 hPa 0,0 l/m 0 min 0 min 0 W/m 33,5 km/h (5 Bft)
02.01.2015 01:14 4,7 C 3,3 C 67 % 1025,9 hPa 0,0 l/m 0 min 0 min 0 W/m 33,5 km/h (5 Bft)
02.01.2015 01:16 4,7 C 3,3 C 67 % 1025,9 hPa 0,0 l/m 0 min 0 min 0 W/m 25,1 km/h (4 Bft)
02.01.2015 01:18 4,7 C 3,3 C 67 % 1025,8 hPa 0,0 l/m 0 min 0 min 0 W/m 41,8 km/h (6 Bft)
02.01.2015 01:20 4,7 C 3,3 C 67 % 1025,8 hPa 0,0 l/m 0 min 0 min 0 W/m 35,6 km/h (5 Bft)
02.01.2015 01:22 4,7 C 2,8 C 67 % 1025,7 hPa 0,0 l/m 0 min 0 min 0 W/m 35,6 km/h (5 Bft)
02.01.2015 01:24 4,7 C 2,8 C 67 % 1025,5 hPa 0,0 l/m 0 min 0 min 0 W/m 27,2 km/h (4 Bft)
02.01.2015 01:26 4,7 C 3,3 C 67 % 1025,5 hPa 0,0 l/m 0 min 0 min 0 W/m 37,7 km/h (5 Bft)
02.01.2015 01:28 4,7 C 3,3 C 67 % 1025,4 hPa 0,0 l/m 0 min 0 min 0 W/m 46,0 km/h (6 Bft)
02.01.2015 01:30 4,8 C 3,3 C 67 % 1025,4 hPa 0,0 l/m 0 min 0 min 0 W/m 29,3 km/h (5 Bft)
02.01.2015 01:32 4,8 C 3,3 C 67 % 1025,3 hPa 0,0 l/m 0 min 0 min 0 W/m 33,5 km/h (5 Bft)
02.01.2015 01:34 4,8 C 3,3 C 67 % 1025,3 hPa 0,0 l/m 0 min 0 min 0 W/m 29,3 km/h (5 Bft)
02.01.2015 01:36 4,8 C 3,3 C 67 % 1025,3 hPa 0,0 l/m 0 min 0 min 0 W/m 18,8 km/h (3 Bft)
02.01.2015 01:38 4,8 C 3,3 C 67 % 1025,3 hPa 0,0 l/m 0 min 0 min 0 W/m 31,4 km/h (5 Bft)
02.01.2015 01:40 4,8 C 3,3 C 67 % 1025,3 hPa 0,0 l/m 0 min 0 min 0 W/m 23,0 km/h (4 Bft)
02.01.2015 01:42 4,8 C 3,3 C 67 % 1025,4 hPa 0,0 l/m 0 min 0 min 0 W/m 35,6 km/h (5 Bft)
02.01.2015 01:44 4,8 C 3,3 C 67 % 1025,4 hPa 0,0 l/m 0 min 0 min 0 W/m 39,7 km/h (6 Bft)
02.01.2015 01:46 4,8 C 3,3 C 67 % 1025,2 hPa 0,0 l/m 0 min 0 min 0 W/m 27,2 km/h (4 Bft)
02.01.2015 01:48 4,9 C 3,3 C 67 % 1025,3 hPa 0,0 l/m 0 min 0 min 0 W/m 29,3 km/h (5 Bft)
02.01.2015 01:50 4,8 C 3,3 C 68 % 1025,2 hPa 0,0 l/m 0 min 0 min 0 W/m 25,1 km/h (4 Bft)
02.01.2015 01:52 4,9 C 3,3 C 68 % 1025,2 hPa 0,0 l/m 0 min 0 min 0 W/m 39,7 km/h (6 Bft)
02.01.2015 01:54 4,9 C 3,3 C 68 % 1025,0 hPa 0,0 l/m 0 min 0 min 0 W/m 31,4 km/h (5 Bft)
02.01.2015 01:56 4,9 C 3,3 C 68 % 1025,0 hPa 0,0 l/m 0 min 0 min 0 W/m 29,3 km/h (5 Bft)
02.01.2015 01:58 4,9 C 3,3 C 68 % 1024,9 hPa 0,0 l/m 0 min 0 min 0 W/m 27,2 km/h (4 Bft)
02.01.2015 02:00 4,9 C 3,3 C 68 % 1024,8 hPa 0,0 l/m 0 min 0 min 0 W/m 35,6 km/h (5 Bft)
02.01.2015 02:02 4,9 C 3,3 C 68 % 1024,8 hPa 0,0 l/m 0 min 0 min 0 W/m 20,9 km/h (4 Bft)
02.01.2015 02:04 4,9 C 3,3 C 69 % 1024,7 hPa 0,0 l/m 0 min 0 min 0 W/m 23,0 km/h (4 Bft)
02.01.2015 02:06 4,8 C 3,3 C 69 % 1024,6 hPa 0,0 l/m 0 min 0 min 0 W/m 27,2 km/h (4 Bft)
02.01.2015 02:08 4,8 C 3,3 C 69 % 1024,6 hPa 0,0 l/m 0 min 0 min 0 W/m 27,2 km/h (4 Bft)
02.01.2015 02:10 4,9 C 3,3 C 69 % 1024,6 hPa 0,0 l/m 0 min 0 min 0 W/m 25,1 km/h (4 Bft)
02.01.2015 02:12 4,9 C 3,3 C 69 % 1024,5 hPa 0,0 l/m 0 min 0 min 0 W/m 35,6 km/h (5 Bft)
02.01.2015 02:14 4,9 C 3,3 C 69 % 1024,6 hPa 0,0 l/m 0 min 0 min 0 W/m 20,9 km/h (4 Bft)
02.01.2015 02:16 4,9 C 3,3 C 69 % 1024,6 hPa 0,0 l/m 0 min 0 min 0 W/m 35,6 km/h (5 Bft)
02.01.2015 02:18 4,9 C 3,3 C 69 % 1024,6 hPa 0,0 l/m 0 min 0 min 0 W/m 31,4 km/h (5 Bft)
02.01.2015 02:20 5,0 C 3,3 C 70 % 1024,5 hPa 0,0 l/m 0 min 0 min 0 W/m 39,7 km/h (6 Bft)
02.01.2015 02:22 5,0 C 3,3 C 70 % 1024,4 hPa 0,0 l/m 0 min 0 min 0 W/m 29,3 km/h (5 Bft)
02.01.2015 02:24 5,1 C 3,3 C 70 % 1024,4 hPa 0,0 l/m 0 min 0 min 0 W/m 27,2 km/h (4 Bft)
02.01.2015 02:26 5,1 C 3,3 C 70 % 1024,4 hPa 0,0 l/m 0 min 0 min 0 W/m 20,9 km/h (4 Bft)
02.01.2015 02:28 5,1 C 3,9 C 70 % 1024,4 hPa 0,0 l/m 0 min 0 min 0 W/m 29,3 km/h (5 Bft)
02.01.2015 02:30 5,2 C 3,9 C 69 % 1024,3 hPa 0,0 l/m 0 min 0 min 0 W/m 33,5 km/h (5 Bft)
02.01.2015 02:32 5,2 C 3,9 C 69 % 1024,3 hPa 0,0 l/m 0 min 0 min 0 W/m 33,5 km/h (5 Bft)
02.01.2015 02:34 5,2 C 3,9 C 70 % 1024,1 hPa 0,0 l/m 0 min 0 min 0 W/m 20,9 km/h (4 Bft)
02.01.2015 02:36 5,2 C 3,9 C 70 % 1024,1 hPa 0,0 l/m 0 min 0 min 0 W/m 23,0 km/h (4 Bft)
02.01.2015 02:38 5,3 C 3,9 C 70 % 1024,0 hPa 0,0 l/m 0 min 0 min 0 W/m 37,7 km/h (5 Bft)
02.01.2015 02:40 5,3 C 3,9 C 70 % 1024,0 hPa 0,0 l/m 0 min 0 min 0 W/m 31,4 km/h (5 Bft)
02.01.2015 02:42 5,3 C 3,9 C 70 % 1024,0 hPa 0,0 l/m 0 min 0 min 0 W/m 29,3 km/h (5 Bft)
02.01.2015 02:44 5,3 C 3,9 C 70 % 1023,9 hPa 0,0 l/m 0 min 0 min 0 W/m 29,3 km/h (5 Bft)
02.01.2015 02:46 5,4 C 3,9 C 70 % 1024,0 hPa 0,0 l/m 0 min 0 min 0 W/m 25,1 km/h (4 Bft)
02.01.2015 02:48 5,4 C 3,9 C 70 % 1023,9 hPa 0,0 l/m 0 min 0 min 0 W/m 29,3 km/h (5 Bft)
02.01.2015 02:50 5,4 C 3,9 C 70 % 1023,9 hPa 0,0 l/m 0 min 0 min 0 W/m 23,0 km/h (4 Bft)
02.01.2015 02:52 5,4 C 3,9 C 70 % 1023,8 hPa 0,0 l/m 0 min 0 min 0 W/m 31,4 km/h (5 Bft)
02.01.2015 02:54 5,4 C 3,9 C 70 % 1023,8 hPa 0,0 l/m 0 min 0 min 0 W/m 31,4 km/h (5 Bft)
02.01.2015 02:56 5,4 C 3,9 C 70 % 1023,9 hPa 0,0 l/m 0 min 0 min 0 W/m 27,2 km/h (4 Bft)
02.01.2015 02:58 5,4 C 3,9 C 70 % 1023,9 hPa 0,0 l/m 0 min 0 min 0 W/m 18,8 km/h (3 Bft)
02.01.2015 03:00 5,4 C 3,9 C 70 % 1023,9 hPa 0,0 l/m 0 min 0 min 0 W/m 29,3 km/h (5 Bft)
02.01.2015 03:02 5,4 C 3,9 C 70 % 1023,8 hPa 0,0 l/m 0 min 0 min 0 W/m 27,2 km/h (4 Bft)
02.01.2015 03:04 5,5 C 3,9 C 71 % 1023,8 hPa 0,0 l/m 0 min 0 min 0 W/m 23,0 km/h (4 Bft)
02.01.2015 03:06 5,5 C 3,9 C 71 % 1023,7 hPa 0,0 l/m 0 min 0 min 0 W/m 23,0 km/h (4 Bft)
02.01.2015 03:08 5,5 C 3,9 C 71 % 1023,7 hPa 0,0 l/m 0 min 0 min 0 W/m 18,8 km/h (3 Bft)
02.01.2015 03:10 5,5 C 3,9 C 71 % 1023,6 hPa 0,0 l/m 0 min 0 min 0 W/m 18,8 km/h (3 Bft)
02.01.2015 03:12 5,5 C 3,9 C 71 % 1023,6 hPa 0,0 l/m 0 min 0 min 0 W/m 27,2 km/h (4 Bft)
02.01.2015 03:14 5,5 C 3,9 C 71 % 1023,7 hPa 0,0 l/m 0 min 0 min 0 W/m 18,8 km/h (3 Bft)
02.01.2015 03:16 5,5 C 3,9 C 71 % 1023,7 hPa 0,0 l/m 0 min 0 min 0 W/m 20,9 km/h (4 Bft)
02.01.2015 03:18 5,6 C 3,9 C 71 % 1023,7 hPa 0,0 l/m 0 min 0 min 0 W/m 23,0 km/h (4 Bft)
02.01.2015 03:20 5,6 C 3,9 C 71 % 1023,7 hPa 0,0 l/m 0 min 0 min 0 W/m 25,1 km/h (4 Bft)
02.01.2015 03:22 5,6 C 3,9 C 72 % 1023,5 hPa 0,0 l/m 0 min 0 min 0 W/m 29,3 km/h (5 Bft)
02.01.2015 03:24 5,6 C 3,9 C 72 % 1023,5 hPa 0,0 l/m 0 min 0 min 0 W/m 25,1 km/h (4 Bft)
02.01.2015 03:26 5,6 C 3,9 C 72 % 1023,6 hPa 0,0 l/m 0 min 0 min 0 W/m 20,9 km/h (4 Bft)
02.01.2015 03:28 5,6 C 3,9 C 72 % 1023,6 hPa 0,0 l/m 0 min 0 min 0 W/m 27,2 km/h (4 Bft)
02.01.2015 03:30 5,6 C 4,4 C 72 % 1023,8 hPa 0,0 l/m 0 min 0 min 0 W/m 20,9 km/h (4 Bft)
02.01.2015 03:32 5,7 C 4,4 C 72 % 1023,7 hPa 0,0 l/m 0 min 0 min 0 W/m 25,1 km/h (4 Bft)
02.01.2015 03:34 5,7 C 4,4 C 72 % 1023,6 hPa 0,0 l/m 0 min 0 min 0 W/m 23,0 km/h (4 Bft)
02.01.2015 03:36 5,7 C 4,4 C 72 % 1023,6 hPa 0,0 l/m 0 min 0 min 0 W/m 27,2 km/h (4 Bft)
02.01.2015 03:38 5,7 C 4,4 C 72 % 1023,5 hPa 0,0 l/m 0 min 0 min 0 W/m 12,6 km/h (3 Bft)
02.01.2015 03:40 5,7 C 3,9 C 72 % 1023,4 hPa 0,0 l/m 0 min 0 min 0 W/m 25,1 km/h (4 Bft)
02.01.2015 03:42 5,7 C 4,4 C 72 % 1023,5 hPa 0,0 l/m 0 min 0 min 0 W/m 23,0 km/h (4 Bft)
02.01.2015 03:44 5,8 C 4,4 C 73 % 1023,4 hPa 0,0 l/m 0 min 0 min 0 W/m 18,8 km/h (3 Bft)
02.01.2015 03:46 5,8 C 4,4 C 73 % 1023,4 hPa 0,0 l/m 0 min 0 min 0 W/m 27,2 km/h (4 Bft)
02.01.2015 03:48 5,8 C 4,4 C 73 % 1023,4 hPa 0,0 l/m 0 min 0 min 0 W/m 25,1 km/h (4 Bft)
02.01.2015 03:50 5,8 C 4,4 C 74 % 1023,4 hPa 0,0 l/m 0 min 0 min 0 W/m 20,9 km/h (4 Bft)
02.01.2015 03:52 5,8 C 4,4 C 74 % 1023,2 hPa 0,0 l/m 0 min 0 min 0 W/m 31,4 km/h (5 Bft)
02.01.2015 03:54 5,9 C 4,4 C 74 % 1023,2 hPa 0,0 l/m 0 min 0 min 0 W/m 25,1 km/h (4 Bft)
02.01.2015 03:56 5,9 C 4,4 C 75 % 1023,2 hPa 0,0 l/m 0 min 0 min 0 W/m 31,4 km/h (5 Bft)
02.01.2015 03:58 5,9 C 4,4 C 75 % 1023,1 hPa 0,0 l/m 0 min 0 min 0 W/m 27,2 km/h (4 Bft)
02.01.2015 04:00 5,9 C 4,4 C 75 % 1023,2 hPa 0,0 l/m 0 min 0 min 0 W/m 23,0 km/h (4 Bft)
02.01.2015 04:02 5,9 C 4,4 C 76 % 1023,2 hPa 0,0 l/m 0 min 0 min 0 W/m 35,6 km/h (5 Bft)
02.01.2015 04:04 6,0 C 4,4 C 76 % 1023,2 hPa 0,0 l/m 0 min 0 min 0 W/m 27,2 km/h (4 Bft)
02.01.2015 04:06 6,0 C 4,4 C 76 % 1023,0 hPa 0,0 l/m 0 min 0 min 0 W/m 35,6 km/h (5 Bft)
02.01.2015 04:08 6,1 C 4,4 C 77 % 1023,0 hPa 0,0 l/m 0 min 0 min 0 W/m 27,2 km/h (4 Bft)
02.01.2015 04:10 6,1 C 4,4 C 77 % 1023,0 hPa 0,0 l/m 0 min 0 min 0 W/m 33,5 km/h (5 Bft)
02.01.2015 04:12 6,1 C 4,4 C 77 % 1023,0 hPa 0,0 l/m 0 min 2 min 0 W/m 33,5 km/h (5 Bft)
02.01.2015 04:14 6,1 C 4,4 C 77 % 1023,0 hPa 0,0 l/m 0 min 2 min 0 W/m 35,6 km/h (5 Bft)
02.01.2015 04:16 6,1 C 3,9 C 77 % 1022,9 hPa 0,0 l/m 0 min 2 min 0 W/m 23,0 km/h (4 Bft)
02.01.2015 04:18 6,1 C 3,9 C 78 % 1022,9 hPa 0,0 l/m 0 min 2 min 0 W/m 37,7 km/h (5 Bft)
02.01.2015 04:20 6,1 C 3,9 C 78 % 1022,9 hPa 0,0 l/m 0 min 2 min 0 W/m 35,6 km/h (5 Bft)
02.01.2015 04:22 6,1 C 3,9 C 79 % 1022,9 hPa 0,0 l/m 0 min 0 min 0 W/m 41,8 km/h (6 Bft)
02.01.2015 04:24 6,1 C 3,9 C 79 % 1022,8 hPa 0,0 l/m 0 min 2 min 0 W/m 31,4 km/h (5 Bft)
02.01.2015 04:26 6,1 C 3,9 C 79 % 1022,9 hPa 0,0 l/m 0 min 2 min 0 W/m 37,7 km/h (5 Bft)
02.01.2015 04:28 6,1 C 3,9 C 80 % 1022,8 hPa 0,0 l/m 0 min 2 min 0 W/m 43,9 km/h (6 Bft)
02.01.2015 04:30 6,0 C 3,9 C 80 % 1022,7 hPa 0,0 l/m 0 min 2 min 0 W/m 39,7 km/h (6 Bft)
02.01.2015 04:32 6,0 C 3,9 C 81 % 1022,7 hPa 0,0 l/m 0 min 2 min 0 W/m 25,1 km/h (4 Bft)
02.01.2015 04:34 5,9 C 3,9 C 81 % 1022,6 hPa 0,0 l/m 0 min 2 min 0 W/m 29,3 km/h (5 Bft)
02.01.2015 04:36 5,9 C 3,9 C 82 % 1022,6 hPa 0,0 l/m 0 min 2 min 0 W/m 37,7 km/h (5 Bft)
02.01.2015 04:38 5,9 C 3,9 C 82 % 1022,6 hPa 0,0 l/m 0 min 2 min 0 W/m 25,1 km/h (4 Bft)
02.01.2015 04:40 5,9 C 3,9 C 82 % 1022,5 hPa 0,0 l/m 0 min 0 min 0 W/m 46,0 km/h (6 Bft)
02.01.2015 04:42 5,8 C 3,9 C 82 % 1022,6 hPa 0,0 l/m 0 min 0 min 0 W/m 35,6 km/h (5 Bft)
02.01.2015 04:44 5,8 C 3,9 C 83 % 1022,5 hPa 0,0 l/m 0 min 2 min 0 W/m 43,9 km/h (6 Bft)
02.01.2015 04:46 5,8 C 3,9 C 83 % 1022,5 hPa 0,0 l/m 0 min 0 min 0 W/m 39,7 km/h (6 Bft)
02.01.2015 04:48 5,8 C 3,9 C 83 % 1022,4 hPa 0,0 l/m 0 min 2 min 0 W/m 41,8 km/h (6 Bft)
02.01.2015 04:50 5,8 C 3,9 C 83 % 1022,4 hPa 0,0 l/m 0 min 2 min 0 W/m 46,0 km/h (6 Bft)
02.01.2015 04:52 5,8 C 3,9 C 83 % 1022,4 hPa 0,0 l/m 0 min 2 min 0 W/m 58,6 km/h (7 Bft)
02.01.2015 04:54 5,8 C 3,9 C 84 % 1022,4 hPa 0,0 l/m 0 min 2 min 0 W/m 37,7 km/h (5 Bft)
02.01.2015 04:56 5,7 C 3,9 C 84 % 1022,2 hPa 0,0 l/m 0 min 2 min 0 W/m 43,9 km/h (6 Bft)
02.01.2015 04:58 5,7 C 3,9 C 84 % 1022,3 hPa 0,0 l/m 0 min 2 min 0 W/m 41,8 km/h (6 Bft)
02.01.2015 05:00 5,7 C 3,9 C 84 % 1022,2 hPa 0,0 l/m 0 min 2 min 0 W/m 29,3 km/h (5 Bft)
02.01.2015 05:02 5,7 C 3,9 C 85 % 1022,1 hPa 0,0 l/m 0 min 0 min 0 W/m 37,7 km/h (5 Bft)
02.01.2015 05:04 5,7 C 3,9 C 85 % 1022,3 hPa 0,0 l/m 0 min 0 min 0 W/m 46,0 km/h (6 Bft)
02.01.2015 05:06 5,6 C 3,9 C 85 % 1022,1 hPa 0,0 l/m 0 min 2 min 0 W/m 41,8 km/h (6 Bft)
02.01.2015 05:08 5,6 C 3,9 C 85 % 1022,1 hPa 0,0 l/m 0 min 2 min 0 W/m 31,4 km/h (5 Bft)
02.01.2015 05:10 5,6 C 3,9 C 85 % 1022,2 hPa 0,0 l/m 0 min 2 min 0 W/m 35,6 km/h (5 Bft)
02.01.2015 05:12 5,6 C 3,9 C 86 % 1022,2 hPa 0,0 l/m 0 min 2 min 0 W/m 50,2 km/h (7 Bft)
02.01.2015 05:14 5,6 C 3,9 C 86 % 1022,3 hPa 0,0 l/m 0 min 2 min 0 W/m 37,7 km/h (5 Bft)
02.01.2015 05:16 5,6 C 3,9 C 86 % 1022,4 hPa 0,0 l/m 0 min 2 min 0 W/m 39,7 km/h (6 Bft)
02.01.2015 05:18 5,6 C 3,3 C 87 % 1022,2 hPa 0,0 l/m 0 min 2 min 0 W/m 39,7 km/h (6 Bft)
02.01.2015 05:20 5,6 C 3,3 C 87 % 1022,2 hPa 0,0 l/m 0 min 2 min 0 W/m 50,2 km/h (7 Bft)
02.01.2015 05:22 5,6 C 3,3 C 87 % 1022,1 hPa 0,0 l/m 0 min 2 min 0 W/m 48,1 km/h (6 Bft)
02.01.2015 05:24 5,6 C 3,3 C 87 % 1022,2 hPa 0,0 l/m 0 min 2 min 0 W/m 48,1 km/h (6 Bft)
02.01.2015 05:26 5,5 C 3,3 C 88 % 1022,1 hPa 0,0 l/m 0 min 2 min 0 W/m 35,6 km/h (5 Bft)
02.01.2015 05:28 5,5 C 3,3 C 88 % 1022,3 hPa 0,0 l/m 0 min 2 min 0 W/m 33,5 km/h (5 Bft)
02.01.2015 05:30 5,5 C 3,3 C 88 % 1022,3 hPa 0,0 l/m 0 min 2 min 0 W/m 29,3 km/h (5 Bft)
02.01.2015 05:32 5,4 C 3,3 C 88 % 1022,4 hPa 0,0 l/m 0 min 2 min 0 W/m 35,6 km/h (5 Bft)
02.01.2015 05:34 5,4 C 3,3 C 88 % 1022,4 hPa 0,0 l/m 0 min 2 min 0 W/m 48,1 km/h (6 Bft)
02.01.2015 05:36 5,4 C 3,3 C 89 % 1022,4 hPa 0,2 l/m 0 min 2 min 0 W/m 50,2 km/h (7 Bft)
02.01.2015 05:38 5,4 C 3,3 C 89 % 1022,3 hPa 0,0 l/m 0 min 2 min 0 W/m 46,0 km/h (6 Bft)
02.01.2015 05:40 5,4 C 3,3 C 89 % 1022,3 hPa 0,0 l/m 0 min 2 min 0 W/m 43,9 km/h (6 Bft)
02.01.2015 05:42 5,4 C 3,3 C 89 % 1022,2 hPa 0,0 l/m 0 min 2 min 0 W/m 41,8 km/h (6 Bft)
02.01.2015 05:44 5,4 C 3,3 C 89 % 1022,4 hPa 0,0 l/m 0 min 2 min 0 W/m 46,0 km/h (6 Bft)
02.01.2015 05:46 5,3 C 3,3 C 89 % 1022,2 hPa 0,0 l/m 0 min 2 min 0 W/m 46,0 km/h (6 Bft)
02.01.2015 05:48 5,3 C 3,3 C 90 % 1022,2 hPa 0,0 l/m 0 min 0 min 0 W/m 46,0 km/h (6 Bft)
02.01.2015 05:50 5,3 C 3,3 C 90 % 1022,2 hPa 0,0 l/m 0 min 2 min 0 W/m 39,7 km/h (6 Bft)
02.01.2015 05:52 5,3 C 3,3 C 90 % 1022,2 hPa 0,0 l/m 0 min 2 min 0 W/m 52,3 km/h (7 Bft)
02.01.2015 05:54 5,2 C 3,3 C 90 % 1022,3 hPa 0,0 l/m 0 min 2 min 0 W/m 37,7 km/h (5 Bft)
02.01.2015 05:56 5,2 C 3,3 C 90 % 1022,2 hPa 0,0 l/m 0 min 2 min 0 W/m 35,6 km/h (5 Bft)
02.01.2015 05:58 5,2 C 3,3 C 90 % 1022,3 hPa 0,0 l/m 0 min 2 min 0 W/m 39,7 km/h (6 Bft)
02.01.2015 06:00 5,2 C 3,3 C 90 % 1022,0 hPa 0,0 l/m 0 min 2 min 0 W/m 43,9 km/h (6 Bft)
02.01.2015 06:02 5,2 C 3,3 C 91 % 1022,0 hPa 0,0 l/m 0 min 2 min 0 W/m 46,0 km/h (6 Bft)
02.01.2015 06:06 5,1 C 3,3 C 91 % 1021,9 hPa 0,0 l/m 0 min 2 min 0 W/m 66,6 km/h (8 Bft)
02.01.2015 06:08 5,1 C 3,3 C 91 % 1021,9 hPa 0,2 l/m 0 min 2 min 0 W/m 62,8 km/h (8 Bft)
02.01.2015 06:10 5,1 C 3,3 C 91 % 1022,0 hPa 0,0 l/m 0 min 2 min 0 W/m 41,8 km/h (6 Bft)
02.01.2015 06:12 5,1 C 3,3 C 91 % 1021,8 hPa 0,0 l/m 0 min 2 min 0 W/m 33,5 km/h (5 Bft)
02.01.2015 06:14 5,1 C 3,3 C 92 % 1021,8 hPa 0,0 l/m 0 min 2 min 0 W/m 39,7 km/h (6 Bft)
02.01.2015 06:16 5,1 C 3,3 C 92 % 1021,7 hPa 0,0 l/m 0 min 2 min 0 W/m 37,7 km/h (5 Bft)
02.01.2015 06:18 5,1 C 3,3 C 92 % 1021,8 hPa 0,0 l/m 0 min 2 min 0 W/m 35,6 km/h (5 Bft)
02.01.2015 06:20 5,1 C 3,3 C 92 % 1021,8 hPa 0,2 l/m 0 min 2 min 0 W/m 33,5 km/h (5 Bft)
02.01.2015 06:22 5,1 C 3,3 C 92 % 1022,0 hPa 0,0 l/m 0 min 2 min 0 W/m 35,6 km/h (5 Bft)
02.01.2015 06:24 5,1 C 3,3 C 92 % 1022,1 hPa 0,0 l/m 0 min 2 min 0 W/m 48,1 km/h (6 Bft)
02.01.2015 06:26 5,1 C 3,3 C 93 % 1022,1 hPa 0,2 l/m 0 min 2 min 0 W/m 39,7 km/h (6 Bft)
02.01.2015 06:28 5,1 C 3,3 C 93 % 1022,0 hPa 0,2 l/m 0 min 2 min 0 W/m 33,5 km/h (5 Bft)
02.01.2015 06:30 5,1 C 3,3 C 93 % 1021,8 hPa 0,0 l/m 0 min 2 min 0 W/m 39,7 km/h (6 Bft)
02.01.2015 06:32 5,1 C 3,3 C 93 % 1022,0 hPa 0,2 l/m 0 min 2 min 0 W/m 46,0 km/h (6 Bft)
02.01.2015 06:34 5,1 C 3,3 C 93 % 1021,9 hPa 0,0 l/m 0 min 2 min 0 W/m 35,6 km/h (5 Bft)
02.01.2015 06:36 5,0 C 3,3 C 93 % 1022,0 hPa 0,2 l/m 0 min 2 min 0 W/m 33,5 km/h (5 Bft)
02.01.2015 06:38 5,0 C 3,3 C 93 % 1022,0 hPa 0,0 l/m 0 min 2 min 0 W/m 29,3 km/h (5 Bft)
02.01.2015 06:40 5,0 C 3,3 C 93 % 1022,0 hPa 0,2 l/m 0 min 2 min 0 W/m 43,9 km/h (6 Bft)
02.01.2015 06:42 5,0 C 3,3 C 93 % 1021,9 hPa 0,0 l/m 0 min 0 min 0 W/m 39,7 km/h (6 Bft)
02.01.2015 06:44 5,0 C 3,3 C 94 % 1022,0 hPa 0,0 l/m 0 min 0 min 0 W/m 43,9 km/h (6 Bft)
02.01.2015 06:46 5,0 C 3,3 C 94 % 1021,9 hPa 0,2 l/m 0 min 0 min 0 W/m 37,7 km/h (5 Bft)
02.01.2015 06:48 5,0 C 3,3 C 94 % 1021,8 hPa 0,0 l/m 0 min 2 min 0 W/m 43,9 km/h (6 Bft)
02.01.2015 06:50 5,0 C 3,3 C 94 % 1021,9 hPa 0,0 l/m 0 min 2 min 0 W/m 39,7 km/h (6 Bft)
02.01.2015 06:52 4,9 C 3,3 C 94 % 1021,8 hPa 0,0 l/m 0 min 2 min 0 W/m 41,8 km/h (6 Bft)
02.01.2015 06:54 4,9 C 3,3 C 94 % 1021,9 hPa 0,0 l/m 0 min 2 min 0 W/m 39,7 km/h (6 Bft)
02.01.2015 06:56 4,9 C 3,3 C 94 % 1021,9 hPa 0,0 l/m 0 min 2 min 0 W/m 29,3 km/h (5 Bft)
02.01.2015 06:58 4,9 C 3,3 C 94 % 1022,0 hPa 0,2 l/m 0 min 2 min 0 W/m 37,7 km/h (5 Bft)
02.01.2015 07:00 4,9 C 3,3 C 94 % 1021,8 hPa 0,0 l/m 0 min 2 min 0 W/m 31,4 km/h (5 Bft)
02.01.2015 07:02 4,9 C 3,3 C 95 % 1021,9 hPa 0,0 l/m 0 min 2 min 0 W/m 37,7 km/h (5 Bft)
02.01.2015 07:04 4,9 C 3,3 C 95 % 1021,8 hPa 0,0 l/m 0 min 2 min 0 W/m 37,7 km/h (5 Bft)
02.01.2015 07:06 4,9 C 3,3 C 95 % 1021,8 hPa 0,0 l/m 0 min 2 min 0 W/m 43,9 km/h (6 Bft)
02.01.2015 07:08 5,0 C 3,3 C 95 % 1021,8 hPa 0,0 l/m 0 min 0 min 0 W/m 37,7 km/h (5 Bft)
02.01.2015 07:10 5,0 C 3,3 C 95 % 1021,9 hPa 0,0 l/m 0 min 0 min 0 W/m 35,6 km/h (5 Bft)
02.01.2015 07:12 5,0 C 3,3 C 95 % 1021,9 hPa 0,0 l/m 0 min 0 min 0 W/m 52,3 km/h (7 Bft)
02.01.2015 07:14 5,0 C 3,3 C 95 % 1022,0 hPa 0,0 l/m 0 min 0 min 0 W/m 46,0 km/h (6 Bft)
02.01.2015 07:16 5,1 C 3,3 C 95 % 1022,0 hPa 0,0 l/m 0 min 0 min 0 W/m 37,7 km/h (5 Bft)
02.01.2015 07:18 5,1 C 3,9 C 95 % 1022,4 hPa 0,0 l/m 0 min 2 min 0 W/m 48,1 km/h (6 Bft)
02.01.2015 07:20 5,1 C 3,9 C 95 % 1022,2 hPa 0,0 l/m 0 min 0 min 0 W/m 43,9 km/h (6 Bft)
02.01.2015 07:22 5,1 C 3,9 C 95 % 1022,2 hPa 0,0 l/m 0 min 2 min 0 W/m 46,0 km/h (6 Bft)
02.01.2015 07:24 5,2 C 3,9 C 95 % 1022,1 hPa 0,0 l/m 0 min 0 min 0 W/m 43,9 km/h (6 Bft)
02.01.2015 07:26 5,2 C 3,9 C 95 % 1022,3 hPa 0,0 l/m 0 min 0 min 0 W/m 52,3 km/h (7 Bft)
02.01.2015 07:28 5,2 C 3,9 C 95 % 1022,2 hPa 0,0 l/m 0 min 0 min 0 W/m 54,4 km/h (7 Bft)
02.01.2015 07:30 5,3 C 3,9 C 95 % 1022,3 hPa 0,0 l/m 0 min 0 min 0 W/m 35,6 km/h (5 Bft)
02.01.2015 07:32 5,3 C 3,9 C 95 % 1021,9 hPa 0,0 l/m 0 min 0 min 0 W/m 35,6 km/h (5 Bft)
02.01.2015 07:34 5,3 C 3,9 C 96 % 1022,4 hPa 0,0 l/m 0 min 0 min 0 W/m 37,7 km/h (5 Bft)
02.01.2015 07:36 5,3 C 3,9 C 96 % 1022,2 hPa 0,0 l/m 0 min 2 min 0 W/m 41,8 km/h (6 Bft)
02.01.2015 07:38 5,3 C 3,9 C 96 % 1022,4 hPa 0,0 l/m 0 min 2 min 0 W/m 33,5 km/h (5 Bft)
02.01.2015 07:40 5,2 C 3,9 C 96 % 1022,4 hPa 0,0 l/m 0 min 2 min 0 W/m 39,7 km/h (6 Bft)
02.01.2015 07:42 5,2 C 3,9 C 96 % 1022,4 hPa 0,0 l/m 0 min 2 min 0 W/m 52,3 km/h (7 Bft)
02.01.2015 07:44 5,2 C 3,9 C 96 % 1022,2 hPa 0,0 l/m 0 min 0 min 0 W/m 31,4 km/h (5 Bft)
02.01.2015 07:46 5,2 C 3,9 C 96 % 1022,2 hPa 0,0 l/m 0 min 0 min 0 W/m 39,7 km/h (6 Bft)
02.01.2015 07:48 5,2 C 3,9 C 96 % 1022,4 hPa 0,0 l/m 0 min 0 min 0 W/m 39,7 km/h (6 Bft)
02.01.2015 07:50 5,2 C 3,9 C 96 % 1022,1 hPa 0,0 l/m 0 min 0 min 0 W/m 35,6 km/h (5 Bft)
02.01.2015 07:52 5,2 C 3,9 C 96 % 1022,4 hPa 0,0 l/m 0 min 0 min 0 W/m 39,7 km/h (6 Bft)
02.01.2015 07:54 5,2 C 3,9 C 96 % 1022,4 hPa 0,0 l/m 0 min 0 min 0 W/m 31,4 km/h (5 Bft)
02.01.2015 07:56 5,2 C 3,9 C 96 % 1022,5 hPa 0,0 l/m 0 min 0 min 0 W/m 46,0 km/h (6 Bft)
02.01.2015 07:58 5,3 C 3,9 C 96 % 1022,5 hPa 0,0 l/m 0 min 0 min 0 W/m 41,8 km/h (6 Bft)
02.01.2015 08:00 5,3 C 3,9 C 96 % 1022,7 hPa 0,0 l/m 0 min 2 min 0 W/m 48,1 km/h (6 Bft)
02.01.2015 08:02 5,3 C 3,9 C 96 % 1022,5 hPa 0,0 l/m 0 min 2 min 0 W/m 41,8 km/h (6 Bft)
02.01.2015 08:04 5,4 C 3,9 C 96 % 1022,5 hPa 0,0 l/m 0 min 2 min 0 W/m 31,4 km/h (5 Bft)
02.01.2015 08:06 5,4 C 3,9 C 96 % 1022,4 hPa 0,0 l/m 0 min 2 min 0 W/m 25,1 km/h (4 Bft)
02.01.2015 08:08 5,4 C 3,9 C 96 % 1022,5 hPa 0,0 l/m 0 min 2 min 0 W/m 35,6 km/h (5 Bft)
02.01.2015 08:10 5,4 C 3,9 C 96 % 1022,5 hPa 0,0 l/m 0 min 2 min 0 W/m 37,7 km/h (5 Bft)
02.01.2015 08:12 5,4 C 3,9 C 96 % 1022,7 hPa 0,0 l/m 0 min 2 min 0 W/m 29,3 km/h (5 Bft)
02.01.2015 08:14 5,4 C 3,9 C 96 % 1022,6 hPa 0,0 l/m 0 min 2 min 0 W/m 29,3 km/h (5 Bft)
02.01.2015 08:16 5,4 C 3,9 C 96 % 1022,5 hPa 0,0 l/m 0 min 2 min 0 W/m 31,4 km/h (5 Bft)
02.01.2015 08:18 5,4 C 3,9 C 96 % 1022,8 hPa 0,0 l/m 0 min 2 min 0 W/m 33,5 km/h (5 Bft)
02.01.2015 08:20 5,5 C 3,9 C 96 % 1022,7 hPa 0,0 l/m 0 min 2 min 0 W/m 35,6 km/h (5 Bft)
02.01.2015 08:22 5,5 C 3,9 C 96 % 1022,6 hPa 0,0 l/m 0 min 2 min 0 W/m 31,4 km/h (5 Bft)
02.01.2015 08:24 5,6 C 3,9 C 96 % 1022,7 hPa 0,0 l/m 0 min 2 min 0 W/m 33,5 km/h (5 Bft)
02.01.2015 08:26 5,6 C 3,9 C 96 % 1022,6 hPa 0,0 l/m 0 min 2 min 0 W/m 29,3 km/h (5 Bft)
02.01.2015 08:28 5,6 C 3,9 C 96 % 1022,8 hPa 0,0 l/m 0 min 2 min 0 W/m 35,6 km/h (5 Bft)
02.01.2015 08:30 5,6 C 4,4 C 96 % 1022,7 hPa 0,0 l/m 0 min 0 min 0 W/m 27,2 km/h (4 Bft)
02.01.2015 08:32 5,6 C 3,9 C 96 % 1022,9 hPa 0,0 l/m 0 min 2 min 0 W/m 43,9 km/h (6 Bft)
02.01.2015 08:34 5,6 C 4,4 C 96 % 1022,9 hPa 0,0 l/m 0 min 2 min 0 W/m 33,5 km/h (5 Bft)
02.01.2015 08:36 5,6 C 4,4 C 96 % 1023,0 hPa 0,0 l/m 0 min 2 min 0 W/m 33,5 km/h (5 Bft)
02.01.2015 08:38 5,6 C 4,4 C 96 % 1022,9 hPa 0,2 l/m 0 min 0 min 0 W/m 27,2 km/h (4 Bft)
02.01.2015 08:40 5,7 C 4,4 C 96 % 1023,0 hPa 0,0 l/m 0 min 0 min 0 W/m 25,1 km/h (4 Bft)
02.01.2015 08:42 5,7 C 4,4 C 96 % 1022,9 hPa 0,0 l/m 0 min 0 min 0 W/m 35,6 km/h (5 Bft)
02.01.2015 08:44 5,7 C 4,4 C 96 % 1022,8 hPa 0,0 l/m 0 min 0 min 0 W/m 37,7 km/h (5 Bft)
02.01.2015 08:46 5,7 C 4,4 C 96 % 1022,7 hPa 0,0 l/m 0 min 0 min 0 W/m 31,4 km/h (5 Bft)
02.01.2015 08:48 5,7 C 4,4 C 96 % 1022,8 hPa 0,0 l/m 0 min 0 min 0 W/m 37,7 km/h (5 Bft)
02.01.2015 08:50 5,7 C 4,4 C 96 % 1022,9 hPa 0,0 l/m 0 min 0 min 0 W/m 35,6 km/h (5 Bft)
02.01.2015 08:52 5,7 C 4,4 C 97 % 1022,9 hPa 0,0 l/m 0 min 0 min 0 W/m 35,6 km/h (5 Bft)
02.01.2015 08:54 5,7 C 4,4 C 97 % 1023,2 hPa 0,0 l/m 0 min 0 min 0 W/m 43,9 km/h (6 Bft)
02.01.2015 08:56 5,8 C 4,4 C 97 % 1023,2 hPa 0,0 l/m 0 min 0 min 0 W/m 37,7 km/h (5 Bft)
02.01.2015 08:58 5,8 C 4,4 C 97 % 1023,1 hPa 0,0 l/m 0 min 0 min 0 W/m 41,8 km/h (6 Bft)
02.01.2015 09:00 5,8 C 4,4 C 97 % 1023,2 hPa 0,0 l/m 0 min 0 min 0 W/m 41,8 km/h (6 Bft)
02.01.2015 09:02 5,8 C 4,4 C 97 % 1023,1 hPa 0,0 l/m 0 min 0 min 2 W/m 27,2 km/h (4 Bft)
02.01.2015 09:04 5,8 C 4,4 C 97 % 1023,2 hPa 0,0 l/m 0 min 0 min 5 W/m 25,1 km/h (4 Bft)
02.01.2015 09:06 5,8 C 4,4 C 97 % 1023,3 hPa 0,0 l/m 0 min 0 min 5 W/m 35,6 km/h (5 Bft)
02.01.2015 09:08 5,8 C 4,4 C 97 % 1023,3 hPa 0,0 l/m 0 min 0 min 5 W/m 31,4 km/h (5 Bft)
02.01.2015 09:10 5,8 C 4,4 C 97 % 1023,3 hPa 0,0 l/m 0 min 0 min 4 W/m 37,7 km/h (5 Bft)
02.01.2015 09:12 5,9 C 4,4 C 97 % 1023,4 hPa 0,0 l/m 0 min 0 min 4 W/m 37,7 km/h (5 Bft)
02.01.2015 09:14 5,9 C 4,4 C 97 % 1023,4 hPa 0,0 l/m 0 min 0 min 5 W/m 41,8 km/h (6 Bft)
02.01.2015 09:16 5,9 C 4,4 C 97 % 1023,5 hPa 0,0 l/m 0 min 0 min 5 W/m 35,6 km/h (5 Bft)
02.01.2015 09:18 5,9 C 4,4 C 97 % 1023,6 hPa 0,0 l/m 0 min 0 min 5 W/m 41,8 km/h (6 Bft)
02.01.2015 09:20 6,0 C 4,4 C 97 % 1023,5 hPa 0,0 l/m 0 min 0 min 6 W/m 27,2 km/h (4 Bft)
02.01.2015 09:22 6,0 C 4,4 C 97 % 1023,5 hPa 0,0 l/m 0 min 0 min 6 W/m 31,4 km/h (5 Bft)
02.01.2015 09:24 6,1 C 4,4 C 97 % 1023,5 hPa 0,0 l/m 0 min 0 min 7 W/m 31,4 km/h (5 Bft)
02.01.2015 09:26 6,1 C 4,4 C 97 % 1023,6 hPa 0,0 l/m 0 min 0 min 5 W/m 29,3 km/h (5 Bft)
02.01.2015 09:28 6,1 C 4,4 C 97 % 1023,6 hPa 0,0 l/m 0 min 0 min 5 W/m 39,7 km/h (6 Bft)
02.01.2015 09:30 6,1 C 4,4 C 97 % 1023,6 hPa 0,0 l/m 0 min 0 min 6 W/m 23,0 km/h (4 Bft)
02.01.2015 09:32 6,1 C 4,4 C 97 % 1023,7 hPa 0,0 l/m 0 min 0 min 7 W/m 31,4 km/h (5 Bft)
02.01.2015 09:34 6,2 C 5,0 C 97 % 1023,7 hPa 0,0 l/m 0 min 0 min 7 W/m 29,3 km/h (5 Bft)
02.01.2015 09:36 6,2 C 5,0 C 97 % 1023,6 hPa 0,0 l/m 0 min 0 min 7 W/m 31,4 km/h (5 Bft)
02.01.2015 09:38 6,2 C 5,0 C 97 % 1023,5 hPa 0,0 l/m 0 min 0 min 5 W/m 23,0 km/h (4 Bft)
02.01.2015 09:40 6,2 C 5,0 C 97 % 1023,7 hPa 0,0 l/m 0 min 0 min 6 W/m 37,7 km/h (5 Bft)
02.01.2015 09:42 6,3 C 5,0 C 97 % 1023,6 hPa 0,0 l/m 0 min 0 min 8 W/m 31,4 km/h (5 Bft)
02.01.2015 09:44 6,3 C 5,0 C 97 % 1023,4 hPa 0,0 l/m 0 min 0 min 9 W/m 39,7 km/h (6 Bft)
02.01.2015 09:46 6,3 C 5,0 C 97 % 1023,5 hPa 0,0 l/m 0 min 0 min 8 W/m 37,7 km/h (5 Bft)
02.01.2015 09:48 6,4 C 5,0 C 97 % 1023,5 hPa 0,0 l/m 0 min 0 min 8 W/m 41,8 km/h (6 Bft)
02.01.2015 09:50 6,4 C 5,0 C 97 % 1023,6 hPa 0,0 l/m 0 min 2 min 7 W/m 37,7 km/h (5 Bft)
02.01.2015 09:52 6,4 C 5,0 C 97 % 1023,5 hPa 0,0 l/m 0 min 0 min 6 W/m 31,4 km/h (5 Bft)
02.01.2015 09:54 6,5 C 5,0 C 97 % 1023,7 hPa 0,0 l/m 0 min 0 min 7 W/m 31,4 km/h (5 Bft)
02.01.2015 09:56 6,5 C 5,0 C 97 % 1023,7 hPa 0,0 l/m 0 min 0 min 11 W/m 31,4 km/h (5 Bft)
02.01.2015 09:58 6,5 C 5,0 C 97 % 1023,4 hPa 0,0 l/m 0 min 0 min 14 W/m 25,1 km/h (4 Bft)
02.01.2015 10:00 6,5 C 5,0 C 97 % 1023,6 hPa 0,0 l/m 0 min 0 min 7 W/m 29,3 km/h (5 Bft)
02.01.2015 10:02 6,6 C 5,0 C 97 % 1023,8 hPa 0,0 l/m 0 min 0 min 11 W/m 29,3 km/h (5 Bft)
02.01.2015 10:04 6,6 C 5,0 C 97 % 1023,6 hPa 0,0 l/m 0 min 0 min 12 W/m 29,3 km/h (5 Bft)
02.01.2015 10:06 6,6 C 5,0 C 97 % 1023,6 hPa 0,0 l/m 0 min 0 min 10 W/m 35,6 km/h (5 Bft)
02.01.2015 10:08 6,6 C 5,0 C 97 % 1023,6 hPa 0,0 l/m 0 min 0 min 9 W/m 33,5 km/h (5 Bft)
02.01.2015 10:10 6,6 C 5,0 C 97 % 1023,6 hPa 0,0 l/m 0 min 0 min 9 W/m 33,5 km/h (5 Bft)
02.01.2015 10:12 6,7 C 5,0 C 97 % 1023,7 hPa 0,0 l/m 0 min 0 min 7 W/m 37,7 km/h (5 Bft)
02.01.2015 10:14 6,7 C 5,0 C 97 % 1023,8 hPa 0,0 l/m 0 min 2 min 8 W/m 27,2 km/h (4 Bft)
02.01.2015 10:16 6,7 C 5,0 C 97 % 1023,8 hPa 0,0 l/m 0 min 2 min 9 W/m 27,2 km/h (4 Bft)
02.01.2015 10:18 6,7 C 5,0 C 97 % 1023,7 hPa 0,0 l/m 0 min 2 min 8 W/m 23,0 km/h (4 Bft)
02.01.2015 10:20 6,7 C 5,0 C 97 % 1023,8 hPa 0,0 l/m 0 min 0 min 7 W/m 31,4 km/h (5 Bft)
02.01.2015 10:22 6,7 C 5,0 C 97 % 1023,9 hPa 0,0 l/m 0 min 2 min 7 W/m 37,7 km/h (5 Bft)
02.01.2015 10:24 6,7 C 5,0 C 97 % 1024,1 hPa 0,0 l/m 0 min 2 min 7 W/m 33,5 km/h (5 Bft)
02.01.2015 10:26 6,8 C 5,0 C 97 % 1024,1 hPa 0,0 l/m 0 min 2 min 7 W/m 31,4 km/h (5 Bft)
02.01.2015 10:28 6,8 C 5,0 C 97 % 1024,2 hPa 0,0 l/m 0 min 2 min 8 W/m 27,2 km/h (4 Bft)
02.01.2015 10:30 6,8 C 5,0 C 97 % 1024,2 hPa 0,0 l/m 0 min 2 min 10 W/m 31,4 km/h (5 Bft)
02.01.2015 10:32 6,8 C 5,0 C 97 % 1024,2 hPa 0,0 l/m 0 min 2 min 16 W/m 31,4 km/h (5 Bft)
02.01.2015 10:34 6,8 C 5,0 C 97 % 1024,1 hPa 0,2 l/m 0 min 2 min 14 W/m 29,3 km/h (5 Bft)
02.01.2015 10:36 6,8 C 5,0 C 97 % 1024,4 hPa 0,0 l/m 0 min 2 min 8 W/m 27,2 km/h (4 Bft)
02.01.2015 10:38 6,8 C 5,0 C 97 % 1024,6 hPa 0,0 l/m 0 min 2 min 8 W/m 16,7 km/h (3 Bft)
02.01.2015 10:40 6,8 C 5,0 C 97 % 1024,6 hPa 0,0 l/m 0 min 2 min 9 W/m 23,0 km/h (4 Bft)
02.01.2015 10:42 6,8 C 5,0 C 97 % 1024,7 hPa 0,0 l/m 0 min 2 min 6 W/m 27,2 km/h (4 Bft)
02.01.2015 10:44 6,8 C 5,0 C 97 % 1024,7 hPa 0,0 l/m 0 min 2 min 7 W/m 31,4 km/h (5 Bft)
02.01.2015 10:46 6,8 C 5,0 C 97 % 1024,8 hPa 0,0 l/m 0 min 2 min 6 W/m 29,3 km/h (5 Bft)
02.01.2015 10:48 6,8 C 5,0 C 97 % 1024,9 hPa 0,0 l/m 0 min 2 min 6 W/m 20,9 km/h (4 Bft)
02.01.2015 10:50 6,8 C 5,0 C 97 % 1024,9 hPa 0,0 l/m 0 min 2 min 8 W/m 18,8 km/h (3 Bft)
02.01.2015 10:52 6,8 C 5,6 C 97 % 1024,9 hPa 0,0 l/m 0 min 2 min 12 W/m 27,2 km/h (4 Bft)
02.01.2015 10:54 6,9 C 5,6 C 97 % 1024,9 hPa 0,0 l/m 0 min 2 min 18 W/m 27,2 km/h (4 Bft)
02.01.2015 10:56 6,9 C 5,6 C 97 % 1025,0 hPa 0,2 l/m 0 min 2 min 21 W/m 27,2 km/h (4 Bft)
02.01.2015 10:58 6,9 C 5,6 C 97 % 1025,1 hPa 0,0 l/m 0 min 2 min 29 W/m 27,2 km/h (4 Bft)
02.01.2015 11:00 7,0 C 5,6 C 97 % 1025,1 hPa 0,0 l/m 0 min 2 min 32 W/m 25,1 km/h (4 Bft)
02.01.2015 11:02 7,0 C 5,6 C 97 % 1025,2 hPa 0,0 l/m 0 min 2 min 32 W/m 18,8 km/h (3 Bft)
02.01.2015 11:04 7,1 C 5,6 C 97 % 1025,2 hPa 0,0 l/m 0 min 2 min 33 W/m 20,9 km/h (4 Bft)
02.01.2015 11:06 7,1 C 5,6 C 97 % 1025,1 hPa 0,0 l/m 0 min 2 min 39 W/m 20,9 km/h (4 Bft)
02.01.2015 11:08 7,1 C 5,6 C 97 % 1025,2 hPa 0,0 l/m 0 min 2 min 45 W/m 16,7 km/h (3 Bft)
02.01.2015 11:10 7,1 C 5,6 C 97 % 1025,2 hPa 0,0 l/m 0 min 0 min 53 W/m 27,2 km/h (4 Bft)
02.01.2015 11:12 7,1 C 6,1 C 97 % 1025,2 hPa 0,0 l/m 0 min 0 min 58 W/m 29,3 km/h (5 Bft)
02.01.2015 11:14 7,2 C 6,1 C 97 % 1025,1 hPa 0,0 l/m 0 min 0 min 58 W/m 16,7 km/h (3 Bft)
02.01.2015 11:16 7,2 C 6,1 C 97 % 1025,2 hPa 0,0 l/m 0 min 0 min 60 W/m 20,9 km/h (4 Bft)
02.01.2015 11:18 7,2 C 6,1 C 97 % 1025,0 hPa 0,0 l/m 0 min 0 min 60 W/m 20,9 km/h (4 Bft)
02.01.2015 11:20 7,2 C 6,1 C 97 % 1025,1 hPa 0,0 l/m 0 min 0 min 53 W/m 20,9 km/h (4 Bft)
02.01.2015 11:22 7,3 C 6,1 C 97 % 1025,1 hPa 0,0 l/m 0 min 0 min 52 W/m 20,9 km/h (4 Bft)
02.01.2015 11:24 7,3 C 6,1 C 97 % 1025,1 hPa 0,0 l/m 0 min 0 min 53 W/m 16,7 km/h (3 Bft)
02.01.2015 11:26 7,3 C 6,1 C 97 % 1025,1 hPa 0,0 l/m 0 min 0 min 62 W/m 25,1 km/h (4 Bft)
02.01.2015 11:28 7,3 C 6,1 C 97 % 1025,2 hPa 0,0 l/m 0 min 0 min 63 W/m 29,3 km/h (5 Bft)
02.01.2015 11:30 7,3 C 6,1 C 97 % 1025,2 hPa 0,0 l/m 0 min 0 min 68 W/m 18,8 km/h (3 Bft)
02.01.2015 11:32 7,3 C 6,1 C 97 % 1025,2 hPa 0,0 l/m 0 min 0 min 63 W/m 25,1 km/h (4 Bft)
02.01.2015 11:34 7,4 C 6,1 C 98 % 1025,2 hPa 0,0 l/m 0 min 0 min 71 W/m 31,4 km/h (5 Bft)
02.01.2015 11:36 7,4 C 6,1 C 98 % 1025,2 hPa 0,0 l/m 0 min 0 min 72 W/m 27,2 km/h (4 Bft)
02.01.2015 11:38 7,4 C 6,1 C 98 % 1025,2 hPa 0,0 l/m 0 min 0 min 70 W/m 25,1 km/h (4 Bft)
02.01.2015 11:40 7,4 C 6,1 C 98 % 1025,2 hPa 0,0 l/m 0 min 0 min 74 W/m 23,0 km/h (4 Bft)
02.01.2015 11:42 7,4 C 6,1 C 98 % 1025,2 hPa 0,0 l/m 0 min 0 min 74 W/m 20,9 km/h (4 Bft)
02.01.2015 11:44 7,4 C 6,1 C 98 % 1025,3 hPa 0,0 l/m 0 min 0 min 66 W/m 23,0 km/h (4 Bft)
02.01.2015 11:46 7,4 C 6,1 C 98 % 1025,3 hPa 0,0 l/m 0 min 0 min 66 W/m 20,9 km/h (4 Bft)
02.01.2015 11:48 7,4 C 6,1 C 98 % 1025,3 hPa 0,0 l/m 0 min 0 min 76 W/m 18,8 km/h (3 Bft)
02.01.2015 11:50 7,4 C 6,1 C 98 % 1025,3 hPa 0,0 l/m 0 min 0 min 88 W/m 18,8 km/h (3 Bft)
02.01.2015 11:52 7,5 C 6,1 C 98 % 1025,3 hPa 0,0 l/m 0 min 0 min 94 W/m 20,9 km/h (4 Bft)
02.01.2015 11:54 7,5 C 6,1 C 98 % 1025,4 hPa 0,0 l/m 0 min 0 min 96 W/m 18,8 km/h (3 Bft)
02.01.2015 11:56 7,5 C 6,7 C 98 % 1025,3 hPa 0,0 l/m 0 min 0 min 104 W/m 20,9 km/h (4 Bft)
02.01.2015 11:58 7,6 C 6,7 C 97 % 1025,4 hPa 0,0 l/m 0 min 0 min 113 W/m 14,6 km/h (3 Bft)
02.01.2015 12:00 7,6 C 6,7 C 97 % 1025,5 hPa 0,0 l/m 0 min 0 min 122 W/m 25,1 km/h (4 Bft)
02.01.2015 12:02 7,6 C 6,7 C 97 % 1025,5 hPa 0,0 l/m 0 min 0 min 103 W/m 23,0 km/h (4 Bft)
02.01.2015 12:06 7,7 C 6,1 C 97 % 1025,6 hPa 0,0 l/m 0 min 0 min 67 W/m 27,2 km/h (4 Bft)
02.01.2015 12:08 7,7 C 6,1 C 97 % 1025,5 hPa 0,0 l/m 0 min 0 min 53 W/m 14,6 km/h (3 Bft)
02.01.2015 12:10 7,7 C 6,1 C 97 % 1025,6 hPa 0,0 l/m 0 min 0 min 59 W/m 23,0 km/h (4 Bft)
02.01.2015 12:12 7,7 C 6,1 C 97 % 1025,6 hPa 0,0 l/m 0 min 0 min 65 W/m 20,9 km/h (4 Bft)
02.01.2015 12:14 7,7 C 6,1 C 97 % 1025,6 hPa 0,0 l/m 0 min 0 min 72 W/m 23,0 km/h (4 Bft)
02.01.2015 12:16 7,7 C 6,1 C 97 % 1025,6 hPa 0,0 l/m 0 min 0 min 76 W/m 29,3 km/h (5 Bft)
02.01.2015 12:18 7,7 C 6,1 C 98 % 1025,6 hPa 0,0 l/m 0 min 0 min 75 W/m 18,8 km/h (3 Bft)
02.01.2015 12:20 7,7 C 6,1 C 98 % 1025,6 hPa 0,0 l/m 0 min 0 min 81 W/m 27,2 km/h (4 Bft)
02.01.2015 12:22 7,7 C 6,7 C 98 % 1025,6 hPa 0,0 l/m 0 min 0 min 90 W/m 20,9 km/h (4 Bft)
02.01.2015 12:24 7,7 C 6,1 C 98 % 1025,7 hPa 0,0 l/m 0 min 0 min 100 W/m 31,4 km/h (5 Bft)
02.01.2015 12:26 7,7 C 6,1 C 98 % 1025,7 hPa 0,0 l/m 0 min 0 min 107 W/m 20,9 km/h (4 Bft)
02.01.2015 12:28 7,7 C 6,1 C 97 % 1025,7 hPa 0,0 l/m 0 min 0 min 111 W/m 20,9 km/h (4 Bft)
02.01.2015 12:30 7,7 C 6,1 C 97 % 1025,7 hPa 0,0 l/m 0 min 0 min 112 W/m 25,1 km/h (4 Bft)
02.01.2015 12:32 7,7 C 6,1 C 97 % 1025,7 hPa 0,0 l/m 0 min 0 min 116 W/m 25,1 km/h (4 Bft)
02.01.2015 12:34 7,7 C 6,7 C 97 % 1025,7 hPa 0,0 l/m 0 min 0 min 120 W/m 25,1 km/h (4 Bft)
02.01.2015 12:36 7,7 C 6,7 C 97 % 1025,7 hPa 0,0 l/m 0 min 0 min 135 W/m 20,9 km/h (4 Bft)
02.01.2015 12:38 7,8 C 6,7 C 97 % 1025,7 hPa 0,0 l/m 2 min 0 min 171 W/m 23,0 km/h (4 Bft)
02.01.2015 12:40 7,8 C 6,7 C 97 % 1025,8 hPa 0,0 l/m 2 min 0 min 158 W/m 27,2 km/h (4 Bft)
02.01.2015 12:42 7,8 C 6,7 C 97 % 1025,8 hPa 0,0 l/m 2 min 0 min 163 W/m 25,1 km/h (4 Bft)
02.01.2015 12:44 7,8 C 6,7 C 97 % 1025,8 hPa 0,0 l/m 2 min 0 min 201 W/m 20,9 km/h (4 Bft)
02.01.2015 12:46 7,9 C 6,7 C 97 % 1025,9 hPa 0,0 l/m 2 min 0 min 193 W/m 16,7 km/h (3 Bft)
02.01.2015 12:48 7,9 C 6,7 C 97 % 1025,9 hPa 0,0 l/m 2 min 0 min 203 W/m 23,0 km/h (4 Bft)
02.01.2015 12:50 7,9 C 6,7 C 97 % 1025,9 hPa 0,0 l/m 2 min 0 min 231 W/m 18,8 km/h (3 Bft)
02.01.2015 12:52 8,0 C 6,7 C 97 % 1025,9 hPa 0,0 l/m 2 min 0 min 248 W/m 14,6 km/h (3 Bft)
02.01.2015 12:54 8,1 C 7,2 C 97 % 1025,8 hPa 0,0 l/m 2 min 0 min 260 W/m 27,2 km/h (4 Bft)
02.01.2015 12:56 8,1 C 7,2 C 97 % 1025,8 hPa 0,0 l/m 2 min 0 min 223 W/m 18,8 km/h (3 Bft)
02.01.2015 12:58 8,2 C 6,7 C 97 % 1025,8 hPa 0,0 l/m 2 min 0 min 204 W/m 31,4 km/h (5 Bft)
02.01.2015 13:00 8,2 C 6,7 C 97 % 1025,8 hPa 0,0 l/m 2 min 0 min 187 W/m 23,0 km/h (4 Bft)
02.01.2015 13:02 8,2 C 6,7 C 97 % 1025,9 hPa 0,0 l/m 2 min 0 min 185 W/m 27,2 km/h (4 Bft)
02.01.2015 13:04 8,2 C 6,7 C 97 % 1025,8 hPa 0,0 l/m 2 min 0 min 193 W/m 18,8 km/h (3 Bft)
02.01.2015 13:06 8,2 C 6,7 C 97 % 1025,9 hPa 0,0 l/m 2 min 0 min 174 W/m 29,3 km/h (5 Bft)
02.01.2015 13:08 8,2 C 6,7 C 97 % 1025,9 hPa 0,0 l/m 2 min 0 min 161 W/m 29,3 km/h (5 Bft)
02.01.2015 13:10 8,2 C 6,7 C 96 % 1026,0 hPa 0,0 l/m 2 min 0 min 145 W/m 35,6 km/h (5 Bft)
02.01.2015 13:12 8,1 C 6,7 C 96 % 1026,0 hPa 0,0 l/m 2 min 0 min 142 W/m 20,9 km/h (4 Bft)
02.01.2015 13:14 8,1 C 6,1 C 96 % 1026,0 hPa 0,0 l/m 2 min 0 min 136 W/m 33,5 km/h (5 Bft)
02.01.2015 13:16 8,0 C 6,1 C 95 % 1026,0 hPa 0,0 l/m 0 min 0 min 128 W/m 33,5 km/h (5 Bft)
02.01.2015 13:18 8,0 C 6,1 C 94 % 1026,0 hPa 0,0 l/m 0 min 0 min 124 W/m 18,8 km/h (3 Bft)
02.01.2015 13:20 8,0 C 6,1 C 94 % 1026,0 hPa 0,0 l/m 0 min 0 min 117 W/m 25,1 km/h (4 Bft)
02.01.2015 13:22 8,0 C 5,6 C 93 % 1026,0 hPa 0,0 l/m 0 min 0 min 117 W/m 23,0 km/h (4 Bft)
02.01.2015 13:24 8,0 C 5,6 C 92 % 1026,0 hPa 0,0 l/m 0 min 0 min 113 W/m 23,0 km/h (4 Bft)
02.01.2015 13:26 7,9 C 5,6 C 91 % 1026,0 hPa 0,0 l/m 0 min 0 min 112 W/m 41,8 km/h (6 Bft)
02.01.2015 13:28 7,9 C 5,6 C 90 % 1026,0 hPa 0,0 l/m 0 min 0 min 98 W/m 25,1 km/h (4 Bft)
02.01.2015 13:30 7,9 C 5,6 C 88 % 1026,1 hPa 0,0 l/m 0 min 0 min 93 W/m 18,8 km/h (3 Bft)
02.01.2015 13:32 7,9 C 5,6 C 87 % 1026,2 hPa 0,0 l/m 0 min 0 min 98 W/m 16,7 km/h (3 Bft)
02.01.2015 13:34 7,8 C 5,0 C 86 % 1026,3 hPa 0,0 l/m 0 min 0 min 96 W/m 23,0 km/h (4 Bft)
02.01.2015 13:36 7,8 C 5,0 C 86 % 1026,3 hPa 0,0 l/m 0 min 0 min 87 W/m 29,3 km/h (5 Bft)
02.01.2015 13:38 7,8 C 5,0 C 85 % 1026,2 hPa 0,0 l/m 0 min 0 min 86 W/m 27,2 km/h (4 Bft)
02.01.2015 13:40 7,8 C 5,0 C 84 % 1026,2 hPa 0,0 l/m 0 min 0 min 94 W/m 23,0 km/h (4 Bft)
02.01.2015 13:42 7,8 C 5,0 C 83 % 1026,2 hPa 0,0 l/m 0 min 0 min 122 W/m 18,8 km/h (3 Bft)
02.01.2015 13:44 7,8 C 5,0 C 83 % 1026,3 hPa 0,0 l/m 2 min 0 min 138 W/m 20,9 km/h (4 Bft)
02.01.2015 13:46 7,8 C 5,0 C 83 % 1026,3 hPa 0,0 l/m 0 min 0 min 124 W/m 18,8 km/h (3 Bft)
02.01.2015 13:48 7,7 C 5,0 C 82 % 1026,3 hPa 0,0 l/m 0 min 0 min 120 W/m 25,1 km/h (4 Bft)
02.01.2015 13:50 7,7 C 5,0 C 82 % 1026,3 hPa 0,0 l/m 0 min 0 min 108 W/m 27,2 km/h (4 Bft)
02.01.2015 13:52 7,7 C 5,0 C 81 % 1026,4 hPa 0,0 l/m 0 min 0 min 93 W/m 20,9 km/h (4 Bft)
02.01.2015 13:54 7,7 C 5,0 C 81 % 1026,3 hPa 0,0 l/m 0 min 0 min 122 W/m 14,6 km/h (3 Bft)
02.01.2015 13:56 7,7 C 5,0 C 80 % 1026,3 hPa 0,0 l/m 0 min 0 min 97 W/m 27,2 km/h (4 Bft)
02.01.2015 13:58 7,7 C 5,0 C 80 % 1026,3 hPa 0,0 l/m 0 min 0 min 94 W/m 18,8 km/h (3 Bft)
02.01.2015 14:00 7,7 C 5,0 C 80 % 1026,2 hPa 0,0 l/m 0 min 0 min 75 W/m 16,7 km/h (3 Bft)
02.01.2015 14:02 7,7 C 5,0 C 80 % 1026,2 hPa 0,0 l/m 0 min 0 min 61 W/m 27,2 km/h (4 Bft)
02.01.2015 14:04 7,7 C 4,4 C 80 % 1026,3 hPa 0,0 l/m 0 min 0 min 103 W/m 25,1 km/h (4 Bft)
02.01.2015 14:06 7,7 C 5,0 C 79 % 1026,3 hPa 0,0 l/m 2 min 0 min 139 W/m 27,2 km/h (4 Bft)
02.01.2015 14:08 7,7 C 5,0 C 79 % 1026,4 hPa 0,0 l/m 2 min 0 min 140 W/m 20,9 km/h (4 Bft)
02.01.2015 14:10 7,7 C 5,0 C 79 % 1026,4 hPa 0,0 l/m 2 min 0 min 157 W/m 18,8 km/h (3 Bft)
02.01.2015 14:12 7,7 C 5,0 C 79 % 1026,4 hPa 0,0 l/m 2 min 0 min 152 W/m 23,0 km/h (4 Bft)
02.01.2015 14:14 7,7 C 5,0 C 79 % 1026,4 hPa 0,0 l/m 2 min 0 min 123 W/m 23,0 km/h (4 Bft)
02.01.2015 14:16 7,7 C 5,0 C 78 % 1026,5 hPa 0,0 l/m 2 min 0 min 145 W/m 23,0 km/h (4 Bft)
02.01.2015 14:18 7,7 C 5,0 C 78 % 1026,5 hPa 0,0 l/m 0 min 0 min 111 W/m 16,7 km/h (3 Bft)
02.01.2015 14:20 7,7 C 5,0 C 78 % 1026,5 hPa 0,0 l/m 2 min 0 min 132 W/m 23,0 km/h (4 Bft)
02.01.2015 14:22 7,8 C 5,0 C 78 % 1026,7 hPa 0,0 l/m 2 min 0 min 143 W/m 18,8 km/h (3 Bft)
02.01.2015 14:24 7,8 C 5,0 C 78 % 1026,7 hPa 0,0 l/m 2 min 0 min 131 W/m 18,8 km/h (3 Bft)
02.01.2015 14:26 7,8 C 5,0 C 77 % 1026,6 hPa 0,0 l/m 2 min 0 min 135 W/m 23,0 km/h (4 Bft)
02.01.2015 14:28 7,8 C 5,0 C 77 % 1026,5 hPa 0,0 l/m 2 min 0 min 108 W/m 20,9 km/h (4 Bft)
02.01.2015 14:30 7,7 C 4,4 C 77 % 1026,6 hPa 0,0 l/m 2 min 0 min 109 W/m 14,6 km/h (3 Bft)
02.01.2015 14:32 7,7 C 4,4 C 76 % 1026,6 hPa 0,0 l/m 2 min 0 min 125 W/m 20,9 km/h (4 Bft)
02.01.2015 14:34 7,7 C 5,0 C 76 % 1026,6 hPa 0,0 l/m 2 min 0 min 125 W/m 18,8 km/h (3 Bft)
02.01.2015 14:36 7,7 C 5,0 C 76 % 1026,6 hPa 0,0 l/m 2 min 0 min 126 W/m 18,8 km/h (3 Bft)
02.01.2015 14:38 7,7 C 4,4 C 76 % 1026,6 hPa 0,0 l/m 0 min 0 min 70 W/m 16,7 km/h (3 Bft)
02.01.2015 14:40 7,7 C 4,4 C 76 % 1026,7 hPa 0,0 l/m 2 min 0 min 112 W/m 16,7 km/h (3 Bft)
02.01.2015 14:42 7,7 C 4,4 C 76 % 1026,8 hPa 0,0 l/m 2 min 0 min 116 W/m 18,8 km/h (3 Bft)
02.01.2015 14:44 7,7 C 4,4 C 76 % 1026,8 hPa 0,0 l/m 2 min 0 min 112 W/m 25,1 km/h (4 Bft)
02.01.2015 14:46 7,7 C 4,4 C 75 % 1026,9 hPa 0,0 l/m 2 min 0 min 108 W/m 20,9 km/h (4 Bft)
02.01.2015 14:48 7,7 C 4,4 C 75 % 1026,8 hPa 0,0 l/m 2 min 0 min 105 W/m 18,8 km/h (3 Bft)
02.01.2015 14:50 7,7 C 4,4 C 75 % 1026,8 hPa 0,0 l/m 2 min 0 min 104 W/m 18,8 km/h (3 Bft)
02.01.2015 14:52 7,7 C 4,4 C 75 % 1026,8 hPa 0,0 l/m 2 min 0 min 100 W/m 29,3 km/h (5 Bft)
02.01.2015 14:54 7,7 C 4,4 C 75 % 1026,9 hPa 0,0 l/m 2 min 0 min 98 W/m 18,8 km/h (3 Bft)
02.01.2015 14:56 7,7 C 5,0 C 75 % 1026,9 hPa 0,0 l/m 2 min 0 min 95 W/m 14,6 km/h (3 Bft)
02.01.2015 14:58 7,7 C 5,0 C 75 % 1027,0 hPa 0,0 l/m 2 min 0 min 92 W/m 18,8 km/h (3 Bft)
02.01.2015 15:00 7,7 C 4,4 C 75 % 1027,0 hPa 0,0 l/m 2 min 0 min 89 W/m 16,7 km/h (3 Bft)
02.01.2015 15:02 7,7 C 4,4 C 75 % 1026,8 hPa 0,0 l/m 2 min 0 min 85 W/m 14,6 km/h (3 Bft)
02.01.2015 15:04 7,7 C 4,4 C 75 % 1026,8 hPa 0,0 l/m 2 min 0 min 82 W/m 12,6 km/h (3 Bft)
02.01.2015 15:06 7,6 C 4,4 C 75 % 1027,0 hPa 0,0 l/m 0 min 0 min 79 W/m 18,8 km/h (3 Bft)
02.01.2015 15:08 7,6 C 4,4 C 75 % 1027,1 hPa 0,0 l/m 0 min 0 min 76 W/m 10,5 km/h (2 Bft)
02.01.2015 15:10 7,6 C 4,4 C 76 % 1027,2 hPa 0,0 l/m 0 min 0 min 73 W/m 8,4 km/h (2 Bft)
02.01.2015 15:12 7,6 C 4,4 C 76 % 1027,1 hPa 0,0 l/m 0 min 0 min 70 W/m 18,8 km/h (3 Bft)
02.01.2015 15:14 7,6 C 4,4 C 76 % 1027,2 hPa 0,0 l/m 0 min 0 min 68 W/m 14,6 km/h (3 Bft)
02.01.2015 15:16 7,6 C 4,4 C 76 % 1027,2 hPa 0,0 l/m 0 min 0 min 66 W/m 16,7 km/h (3 Bft)
02.01.2015 15:18 7,5 C 4,4 C 76 % 1027,2 hPa 0,0 l/m 0 min 0 min 63 W/m 18,8 km/h (3 Bft)
02.01.2015 15:20 7,5 C 4,4 C 76 % 1027,2 hPa 0,0 l/m 0 min 0 min 60 W/m 12,6 km/h (3 Bft)
02.01.2015 15:22 7,5 C 4,4 C 76 % 1027,2 hPa 0,0 l/m 0 min 0 min 57 W/m 14,6 km/h (3 Bft)
02.01.2015 15:24 7,4 C 4,4 C 77 % 1027,3 hPa 0,0 l/m 0 min 0 min 54 W/m 14,6 km/h (3 Bft)
02.01.2015 15:26 7,4 C 4,4 C 77 % 1027,4 hPa 0,0 l/m 0 min 0 min 51 W/m 12,6 km/h (3 Bft)
02.01.2015 15:28 7,4 C 4,4 C 77 % 1027,4 hPa 0,0 l/m 0 min 0 min 48 W/m 14,6 km/h (3 Bft)
02.01.2015 15:30 7,4 C 4,4 C 77 % 1027,6 hPa 0,0 l/m 0 min 0 min 46 W/m 18,8 km/h (3 Bft)
02.01.2015 15:32 7,4 C 4,4 C 77 % 1027,8 hPa 0,0 l/m 0 min 0 min 44 W/m 14,6 km/h (3 Bft)
02.01.2015 15:34 7,3 C 4,4 C 77 % 1027,6 hPa 0,0 l/m 0 min 0 min 40 W/m 16,7 km/h (3 Bft)
02.01.2015 15:36 7,3 C 4,4 C 77 % 1027,5 hPa 0,0 l/m 0 min 0 min 40 W/m 12,6 km/h (3 Bft)
02.01.2015 15:38 7,3 C 4,4 C 77 % 1027,6 hPa 0,0 l/m 0 min 0 min 37 W/m 12,6 km/h (3 Bft)
02.01.2015 15:40 7,2 C 4,4 C 77 % 1027,7 hPa 0,0 l/m 0 min 0 min 33 W/m 10,5 km/h (2 Bft)
02.01.2015 15:42 7,2 C 4,4 C 77 % 1027,8 hPa 0,0 l/m 0 min 0 min 36 W/m 10,5 km/h (2 Bft)
02.01.2015 15:44 7,2 C 4,4 C 77 % 1027,8 hPa 0,0 l/m 0 min 0 min 42 W/m 14,6 km/h (3 Bft)
02.01.2015 15:46 7,2 C 4,4 C 77 % 1027,9 hPa 0,0 l/m 0 min 0 min 41 W/m 8,4 km/h (2 Bft)
02.01.2015 15:48 7,2 C 4,4 C 78 % 1027,9 hPa 0,0 l/m 2 min 0 min 45 W/m 10,5 km/h (2 Bft)
02.01.2015 15:50 7,1 C 4,4 C 78 % 1027,9 hPa 0,0 l/m 2 min 0 min 52 W/m 14,6 km/h (3 Bft)
02.01.2015 15:52 7,1 C 4,4 C 77 % 1027,8 hPa 0,0 l/m 2 min 0 min 46 W/m 14,6 km/h (3 Bft)
02.01.2015 15:54 7,1 C 4,4 C 77 % 1027,8 hPa 0,0 l/m 2 min 0 min 41 W/m 14,6 km/h (3 Bft)
02.01.2015 15:56 7,1 C 4,4 C 78 % 1027,9 hPa 0,0 l/m 0 min 0 min 35 W/m 14,6 km/h (3 Bft)
02.01.2015 15:58 7,0 C 4,4 C 78 % 1027,9 hPa 0,0 l/m 0 min 0 min 28 W/m 10,5 km/h (2 Bft)
02.01.2015 16:00 7,0 C 4,4 C 78 % 1027,9 hPa 0,0 l/m 0 min 0 min 27 W/m 25,1 km/h (4 Bft)
02.01.2015 16:02 6,9 C 4,4 C 78 % 1027,9 hPa 0,0 l/m 0 min 0 min 26 W/m 14,6 km/h (3 Bft)
02.01.2015 16:04 6,9 C 4,4 C 78 % 1028,0 hPa 0,0 l/m 0 min 0 min 26 W/m 10,5 km/h (2 Bft)
02.01.2015 16:06 6,9 C 4,4 C 78 % 1028,0 hPa 0,0 l/m 0 min 0 min 25 W/m 12,6 km/h (3 Bft)
02.01.2015 16:08 6,9 C 4,4 C 78 % 1028,0 hPa 0,0 l/m 0 min 0 min 21 W/m 23,0 km/h (4 Bft)
02.01.2015 16:10 6,9 C 3,9 C 78 % 1028,1 hPa 0,0 l/m 0 min 0 min 17 W/m 18,8 km/h (3 Bft)
02.01.2015 16:12 6,8 C 3,9 C 78 % 1028,1 hPa 0,0 l/m 0 min 0 min 15 W/m 18,8 km/h (3 Bft)
02.01.2015 16:14 6,8 C 3,9 C 78 % 1028,2 hPa 0,0 l/m 0 min 0 min 15 W/m 33,5 km/h (5 Bft)
02.01.2015 16:16 6,8 C 3,9 C 78 % 1028,3 hPa 0,0 l/m 2 min 0 min 16 W/m 16,7 km/h (3 Bft)
02.01.2015 16:18 6,8 C 3,9 C 78 % 1028,3 hPa 0,0 l/m 2 min 0 min 16 W/m 16,7 km/h (3 Bft)
02.01.2015 16:20 6,8 C 3,9 C 78 % 1028,2 hPa 0,0 l/m 2 min 0 min 16 W/m 16,7 km/h (3 Bft)
02.01.2015 16:22 6,8 C 3,9 C 78 % 1028,3 hPa 0,0 l/m 2 min 0 min 16 W/m 16,7 km/h (3 Bft)
02.01.2015 16:24 6,7 C 3,9 C 78 % 1028,3 hPa 0,0 l/m 2 min 0 min 14 W/m 16,7 km/h (3 Bft)
02.01.2015 16:26 6,7 C 3,9 C 78 % 1028,3 hPa 0,0 l/m 0 min 0 min 12 W/m 18,8 km/h (3 Bft)
02.01.2015 16:28 6,7 C 3,9 C 78 % 1028,4 hPa 0,0 l/m 0 min 0 min 11 W/m 12,6 km/h (3 Bft)
02.01.2015 16:30 6,7 C 3,9 C 79 % 1028,5 hPa 0,0 l/m 0 min 0 min 10 W/m 12,6 km/h (3 Bft)
02.01.2015 16:32 6,7 C 3,9 C 79 % 1028,5 hPa 0,0 l/m 0 min 0 min 8 W/m 10,5 km/h (2 Bft)
02.01.2015 16:34 6,7 C 3,9 C 79 % 1028,6 hPa 0,0 l/m 0 min 0 min 7 W/m 10,5 km/h (2 Bft)
02.01.2015 16:36 6,6 C 3,9 C 79 % 1028,6 hPa 0,0 l/m 0 min 0 min 6 W/m 12,6 km/h (3 Bft)
02.01.2015 16:38 6,6 C 3,9 C 79 % 1028,6 hPa 0,0 l/m 0 min 0 min 5 W/m 14,6 km/h (3 Bft)
02.01.2015 16:40 6,6 C 3,9 C 79 % 1028,6 hPa 0,0 l/m 0 min 0 min 5 W/m 14,6 km/h (3 Bft)
02.01.2015 16:42 6,6 C 3,9 C 80 % 1028,7 hPa 0,0 l/m 0 min 0 min 5 W/m 16,7 km/h (3 Bft)
02.01.2015 16:44 6,5 C 3,9 C 80 % 1028,6 hPa 0,0 l/m 0 min 0 min 5 W/m 25,1 km/h (4 Bft)
02.01.2015 16:46 6,5 C 3,9 C 80 % 1028,6 hPa 0,0 l/m 0 min 0 min 2 W/m 29,3 km/h (5 Bft)
02.01.2015 16:48 6,4 C 3,9 C 80 % 1028,6 hPa 0,0 l/m 0 min 0 min 0 W/m 41,8 km/h (6 Bft)
02.01.2015 16:50 6,5 C 3,9 C 79 % 1028,6 hPa 0,0 l/m 0 min 0 min 0 W/m 23,0 km/h (4 Bft)
02.01.2015 16:52 6,4 C 3,9 C 79 % 1028,6 hPa 0,0 l/m 0 min 0 min 0 W/m 27,2 km/h (4 Bft)
02.01.2015 16:54 6,4 C 3,9 C 79 % 1028,7 hPa 0,0 l/m 0 min 0 min 0 W/m 33,5 km/h (5 Bft)
02.01.2015 16:56 6,4 C 3,9 C 78 % 1028,8 hPa 0,0 l/m 0 min 0 min 0 W/m 23,0 km/h (4 Bft)
02.01.2015 16:58 6,4 C 3,9 C 78 % 1028,9 hPa 0,0 l/m 0 min 0 min 0 W/m 25,1 km/h (4 Bft)
02.01.2015 17:00 6,4 C 3,9 C 78 % 1028,8 hPa 0,0 l/m 0 min 0 min 0 W/m 25,1 km/h (4 Bft)
02.01.2015 17:02 6,4 C 3,9 C 77 % 1028,9 hPa 0,0 l/m 0 min 0 min 0 W/m 27,2 km/h (4 Bft)
02.01.2015 17:04 6,4 C 3,9 C 77 % 1028,8 hPa 0,0 l/m 0 min 0 min 0 W/m 23,0 km/h (4 Bft)
02.01.2015 17:06 6,4 C 3,9 C 77 % 1029,0 hPa 0,0 l/m 0 min 0 min 0 W/m 20,9 km/h (4 Bft)
02.01.2015 17:08 6,4 C 3,3 C 77 % 1029,0 hPa 0,0 l/m 0 min 0 min 0 W/m 20,9 km/h (4 Bft)
02.01.2015 17:10 6,4 C 3,3 C 77 % 1029,0 hPa 0,0 l/m 0 min 0 min 0 W/m 23,0 km/h (4 Bft)
02.01.2015 17:12 6,4 C 3,3 C 77 % 1029,1 hPa 0,0 l/m 0 min 0 min 0 W/m 25,1 km/h (4 Bft)
02.01.2015 17:14 6,3 C 3,9 C 76 % 1029,1 hPa 0,0 l/m 0 min 0 min 0 W/m 29,3 km/h (5 Bft)
02.01.2015 17:16 6,3 C 3,9 C 76 % 1029,2 hPa 0,0 l/m 0 min 0 min 0 W/m 25,1 km/h (4 Bft)
02.01.2015 17:18 6,3 C 3,3 C 76 % 1029,2 hPa 0,0 l/m 0 min 0 min 0 W/m 20,9 km/h (4 Bft)
02.01.2015 17:20 6,3 C 3,3 C 76 % 1029,3 hPa 0,0 l/m 0 min 0 min 0 W/m 16,7 km/h (3 Bft)
02.01.2015 17:22 6,3 C 3,3 C 76 % 1029,3 hPa 0,0 l/m 0 min 0 min 0 W/m 23,0 km/h (4 Bft)
02.01.2015 17:24 6,2 C 3,3 C 77 % 1029,4 hPa 0,0 l/m 0 min 0 min 0 W/m 29,3 km/h (5 Bft)
02.01.2015 17:26 6,2 C 3,3 C 77 % 1029,5 hPa 0,0 l/m 0 min 0 min 0 W/m 23,0 km/h (4 Bft)
02.01.2015 17:28 6,2 C 3,3 C 77 % 1029,6 hPa 0,0 l/m 0 min 0 min 0 W/m 23,0 km/h (4 Bft)
02.01.2015 17:30 6,2 C 3,3 C 77 % 1029,6 hPa 0,0 l/m 0 min 0 min 0 W/m 20,9 km/h (4 Bft)
02.01.2015 17:32 6,2 C 3,3 C 77 % 1029,7 hPa 0,0 l/m 0 min 0 min 0 W/m 18,8 km/h (3 Bft)
02.01.2015 17:34 6,1 C 3,3 C 77 % 1029,7 hPa 0,0 l/m 0 min 0 min 0 W/m 23,0 km/h (4 Bft)
02.01.2015 17:36 6,1 C 3,3 C 77 % 1029,8 hPa 0,0 l/m 0 min 0 min 0 W/m 18,8 km/h (3 Bft)
02.01.2015 17:38 6,1 C 3,3 C 77 % 1029,8 hPa 0,0 l/m 0 min 0 min 0 W/m 27,2 km/h (4 Bft)
02.01.2015 17:40 6,1 C 3,3 C 78 % 1029,9 hPa 0,0 l/m 0 min 0 min 0 W/m 20,9 km/h (4 Bft)
02.01.2015 17:42 6,1 C 3,3 C 78 % 1029,8 hPa 0,0 l/m 0 min 0 min 0 W/m 29,3 km/h (5 Bft)
02.01.2015 17:44 6,0 C 3,3 C 78 % 1029,9 hPa 0,0 l/m 0 min 0 min 0 W/m 23,0 km/h (4 Bft)
02.01.2015 17:46 6,0 C 3,3 C 78 % 1029,8 hPa 0,0 l/m 0 min 0 min 0 W/m 23,0 km/h (4 Bft)
02.01.2015 17:48 5,9 C 3,3 C 79 % 1029,8 hPa 0,0 l/m 0 min 0 min 0 W/m 27,2 km/h (4 Bft)
02.01.2015 17:50 5,9 C 3,3 C 79 % 1029,8 hPa 0,0 l/m 0 min 0 min 0 W/m 25,1 km/h (4 Bft)
02.01.2015 17:52 5,9 C 3,3 C 79 % 1029,9 hPa 0,0 l/m 0 min 0 min 0 W/m 27,2 km/h (4 Bft)
02.01.2015 17:54 5,9 C 3,3 C 79 % 1030,1 hPa 0,0 l/m 0 min 0 min 0 W/m 18,8 km/h (3 Bft)
02.01.2015 17:56 5,9 C 3,3 C 79 % 1030,1 hPa 0,0 l/m 0 min 0 min 0 W/m 14,6 km/h (3 Bft)
02.01.2015 17:58 5,9 C 3,3 C 79 % 1030,1 hPa 0,0 l/m 0 min 0 min 0 W/m 25,1 km/h (4 Bft)
02.01.2015 18:00 5,9 C 3,3 C 79 % 1030,1 hPa 0,0 l/m 0 min 0 min 0 W/m 18,8 km/h (3 Bft)
02.01.2015 18:02 5,9 C 3,3 C 79 % 1030,2 hPa 0,0 l/m 0 min 0 min 0 W/m 16,7 km/h (3 Bft)
02.01.2015 18:06 5,9 C 3,3 C 79 % 1030,2 hPa 0,0 l/m 0 min 0 min 0 W/m 23,0 km/h (4 Bft)
02.01.2015 18:08 5,8 C 3,3 C 79 % 1030,1 hPa 0,0 l/m 0 min 0 min 0 W/m 18,8 km/h (3 Bft)
02.01.2015 18:10 5,8 C 3,3 C 79 % 1030,1 hPa 0,0 l/m 0 min 0 min 0 W/m 18,8 km/h (3 Bft)
02.01.2015 18:12 5,8 C 3,3 C 79 % 1029,9 hPa 0,0 l/m 0 min 0 min 0 W/m 14,6 km/h (3 Bft)
02.01.2015 18:14 5,8 C 3,3 C 79 % 1029,9 hPa 0,0 l/m 0 min 0 min 0 W/m 31,4 km/h (5 Bft)
02.01.2015 18:16 5,7 C 3,3 C 79 % 1029,9 hPa 0,0 l/m 0 min 0 min 0 W/m 20,9 km/h (4 Bft)
02.01.2015 18:18 5,7 C 2,8 C 79 % 1030,1 hPa 0,0 l/m 0 min 0 min 0 W/m 18,8 km/h (3 Bft)
02.01.2015 18:20 5,7 C 2,8 C 79 % 1030,1 hPa 0,0 l/m 0 min 0 min 0 W/m 16,7 km/h (3 Bft)
02.01.2015 18:22 5,6 C 2,8 C 79 % 1030,0 hPa 0,0 l/m 0 min 0 min 0 W/m 18,8 km/h (3 Bft)
02.01.2015 18:24 5,6 C 2,8 C 79 % 1030,0 hPa 0,0 l/m 0 min 0 min 0 W/m 18,8 km/h (3 Bft)
02.01.2015 18:26 5,6 C 2,8 C 79 % 1030,1 hPa 0,0 l/m 0 min 0 min 0 W/m 20,9 km/h (4 Bft)
02.01.2015 18:28 5,6 C 2,8 C 79 % 1030,2 hPa 0,0 l/m 0 min 0 min 0 W/m 16,7 km/h (3 Bft)
02.01.2015 18:30 5,5 C 2,8 C 79 % 1030,3 hPa 0,0 l/m 0 min 0 min 0 W/m 10,5 km/h (2 Bft)
02.01.2015 18:32 5,4 C 2,8 C 79 % 1030,3 hPa 0,0 l/m 0 min 0 min 0 W/m 16,7 km/h (3 Bft)
02.01.2015 18:34 5,4 C 2,8 C 80 % 1030,4 hPa 0,0 l/m 0 min 0 min 0 W/m 25,1 km/h (4 Bft)
02.01.2015 18:36 5,4 C 2,8 C 80 % 1030,4 hPa 0,0 l/m 0 min 0 min 0 W/m 18,8 km/h (3 Bft)
02.01.2015 18:38 5,4 C 2,8 C 80 % 1030,4 hPa 0,0 l/m 0 min 0 min 0 W/m 12,6 km/h (3 Bft)
02.01.2015 18:40 5,3 C 2,8 C 80 % 1030,4 hPa 0,0 l/m 0 min 0 min 0 W/m 25,1 km/h (4 Bft)
02.01.2015 18:42 5,3 C 2,8 C 80 % 1030,4 hPa 0,0 l/m 0 min 0 min 0 W/m 20,9 km/h (4 Bft)
02.01.2015 18:44 5,3 C 2,8 C 80 % 1030,5 hPa 0,0 l/m 0 min 0 min 0 W/m 18,8 km/h (3 Bft)
02.01.2015 18:46 5,2 C 2,8 C 80 % 1030,5 hPa 0,0 l/m 0 min 0 min 0 W/m 16,7 km/h (3 Bft)
02.01.2015 18:48 5,2 C 2,8 C 80 % 1030,5 hPa 0,0 l/m 0 min 0 min 0 W/m 23,0 km/h (4 Bft)
02.01.2015 18:50 5,2 C 2,8 C 80 % 1030,5 hPa 0,0 l/m 0 min 0 min 0 W/m 18,8 km/h (3 Bft)
02.01.2015 18:52 5,1 C 2,2 C 80 % 1030,5 hPa 0,0 l/m 0 min 0 min 0 W/m 29,3 km/h (5 Bft)
02.01.2015 18:54 5,1 C 2,8 C 80 % 1030,5 hPa 0,0 l/m 0 min 0 min 0 W/m 25,1 km/h (4 Bft)
02.01.2015 18:56 5,1 C 2,8 C 80 % 1030,5 hPa 0,0 l/m 0 min 0 min 0 W/m 23,0 km/h (4 Bft)
02.01.2015 18:58 5,1 C 2,8 C 80 % 1030,5 hPa 0,0 l/m 0 min 0 min 0 W/m 20,9 km/h (4 Bft)
02.01.2015 19:00 5,0 C 2,8 C 80 % 1030,5 hPa 0,0 l/m 0 min 0 min 0 W/m 20,9 km/h (4 Bft)
02.01.2015 19:02 5,0 C 2,8 C 80 % 1030,5 hPa 0,0 l/m 0 min 0 min 0 W/m 20,9 km/h (4 Bft)
02.01.2015 19:04 5,0 C 2,8 C 81 % 1030,6 hPa 0,0 l/m 0 min 0 min 0 W/m 14,6 km/h (3 Bft)
02.01.2015 19:06 4,9 C 2,2 C 81 % 1030,5 hPa 0,0 l/m 0 min 0 min 0 W/m 14,6 km/h (3 Bft)
02.01.2015 19:08 4,9 C 2,2 C 81 % 1030,5 hPa 0,0 l/m 0 min 0 min 0 W/m 25,1 km/h (4 Bft)
02.01.2015 19:10 4,9 C 2,8 C 81 % 1030,5 hPa 0,0 l/m 0 min 0 min 0 W/m 20,9 km/h (4 Bft)
02.01.2015 19:12 4,9 C 2,2 C 81 % 1030,6 hPa 0,0 l/m 0 min 0 min 0 W/m 14,6 km/h (3 Bft)
02.01.2015 19:14 4,9 C 2,8 C 81 % 1030,6 hPa 0,0 l/m 0 min 0 min 0 W/m 25,1 km/h (4 Bft)
02.01.2015 19:16 4,8 C 2,8 C 81 % 1030,6 hPa 0,0 l/m 0 min 0 min 0 W/m 23,0 km/h (4 Bft)
02.01.2015 19:18 4,8 C 2,8 C 81 % 1030,6 hPa 0,0 l/m 0 min 0 min 0 W/m 25,1 km/h (4 Bft)
02.01.2015 19:20 4,8 C 2,8 C 81 % 1030,6 hPa 0,0 l/m 0 min 0 min 0 W/m 16,7 km/h (3 Bft)
02.01.2015 19:22 4,8 C 2,2 C 81 % 1030,6 hPa 0,0 l/m 0 min 0 min 0 W/m 18,8 km/h (3 Bft)
02.01.2015 19:24 4,8 C 2,2 C 81 % 1030,6 hPa 0,0 l/m 0 min 0 min 0 W/m 27,2 km/h (4 Bft)
02.01.2015 19:26 4,8 C 2,8 C 81 % 1030,6 hPa 0,0 l/m 0 min 0 min 0 W/m 16,7 km/h (3 Bft)
02.01.2015 19:28 4,8 C 2,2 C 81 % 1030,6 hPa 0,0 l/m 0 min 0 min 0 W/m 18,8 km/h (3 Bft)
02.01.2015 19:30 4,8 C 2,2 C 81 % 1030,7 hPa 0,0 l/m 0 min 0 min 0 W/m 18,8 km/h (3 Bft)
02.01.2015 19:32 4,7 C 2,2 C 81 % 1030,7 hPa 0,0 l/m 0 min 0 min 0 W/m 18,8 km/h (3 Bft)
02.01.2015 19:34 4,7 C 2,8 C 81 % 1030,7 hPa 0,0 l/m 0 min 0 min 0 W/m 20,9 km/h (4 Bft)
02.01.2015 19:36 4,7 C 2,2 C 81 % 1030,7 hPa 0,0 l/m 0 min 0 min 0 W/m 18,8 km/h (3 Bft)
02.01.2015 19:38 4,7 C 2,2 C 81 % 1030,8 hPa 0,0 l/m 0 min 0 min 0 W/m 16,7 km/h (3 Bft)
02.01.2015 19:40 4,7 C 2,2 C 81 % 1030,8 hPa 0,0 l/m 0 min 0 min 0 W/m 16,7 km/h (3 Bft)
02.01.2015 19:42 4,7 C 2,2 C 81 % 1030,8 hPa 0,0 l/m 0 min 0 min 0 W/m 23,0 km/h (4 Bft)
02.01.2015 19:44 4,6 C 2,2 C 81 % 1030,8 hPa 0,0 l/m 0 min 0 min 0 W/m 16,7 km/h (3 Bft)
02.01.2015 19:46 4,6 C 2,2 C 81 % 1030,8 hPa 0,0 l/m 0 min 0 min 0 W/m 16,7 km/h (3 Bft)
02.01.2015 19:48 4,6 C 2,2 C 82 % 1030,8 hPa 0,0 l/m 0 min 0 min 0 W/m 14,6 km/h (3 Bft)
02.01.2015 19:50 4,6 C 2,2 C 82 % 1030,8 hPa 0,0 l/m 0 min 0 min 0 W/m 12,6 km/h (3 Bft)
02.01.2015 19:52 4,6 C 2,2 C 81 % 1030,9 hPa 0,0 l/m 0 min 0 min 0 W/m 18,8 km/h (3 Bft)
02.01.2015 19:54 4,6 C 2,2 C 82 % 1031,0 hPa 0,0 l/m 0 min 0 min 0 W/m 16,7 km/h (3 Bft)
02.01.2015 19:56 4,5 C 2,2 C 82 % 1031,0 hPa 0,0 l/m 0 min 0 min 0 W/m 20,9 km/h (4 Bft)
02.01.2015 19:58 4,5 C 2,2 C 82 % 1031,1 hPa 0,0 l/m 0 min 0 min 0 W/m 16,7 km/h (3 Bft)
02.01.2015 20:00 4,4 C 2,2 C 82 % 1031,2 hPa 0,0 l/m 0 min 0 min 0 W/m 16,7 km/h (3 Bft)
02.01.2015 20:02 4,4 C 2,2 C 82 % 1031,2 hPa 0,0 l/m 0 min 0 min 0 W/m 16,7 km/h (3 Bft)
02.01.2015 20:04 4,4 C 2,2 C 82 % 1031,2 hPa 0,0 l/m 0 min 0 min 0 W/m 25,1 km/h (4 Bft)
02.01.2015 20:06 4,4 C 2,2 C 82 % 1031,1 hPa 0,0 l/m 0 min 0 min 0 W/m 20,9 km/h (4 Bft)
02.01.2015 20:08 4,4 C 2,2 C 82 % 1031,2 hPa 0,0 l/m 0 min 0 min 0 W/m 16,7 km/h (3 Bft)
02.01.2015 20:10 4,4 C 2,2 C 82 % 1031,3 hPa 0,0 l/m 0 min 0 min 0 W/m 14,6 km/h (3 Bft)
02.01.2015 20:12 4,4 C 2,2 C 82 % 1031,3 hPa 0,0 l/m 0 min 0 min 0 W/m 16,7 km/h (3 Bft)
02.01.2015 20:14 4,3 C 2,2 C 82 % 1031,3 hPa 0,0 l/m 0 min 0 min 0 W/m 18,8 km/h (3 Bft)
02.01.2015 20:16 4,3 C 2,2 C 82 % 1031,3 hPa 0,0 l/m 0 min 0 min 0 W/m 16,7 km/h (3 Bft)
02.01.2015 20:18 4,3 C 2,2 C 82 % 1031,3 hPa 0,0 l/m 0 min 0 min 0 W/m 16,7 km/h (3 Bft)
02.01.2015 20:20 4,3 C 2,2 C 83 % 1031,3 hPa 0,0 l/m 0 min 0 min 0 W/m 16,7 km/h (3 Bft)
02.01.2015 20:22 4,3 C 2,2 C 83 % 1031,2 hPa 0,0 l/m 0 min 0 min 0 W/m 12,6 km/h (3 Bft)
02.01.2015 20:24 4,2 C 2,2 C 83 % 1031,3 hPa 0,0 l/m 0 min 0 min 0 W/m 20,9 km/h (4 Bft)
02.01.2015 20:26 4,2 C 2,2 C 83 % 1031,2 hPa 0,0 l/m 0 min 0 min 0 W/m 16,7 km/h (3 Bft)
02.01.2015 20:28 4,2 C 2,2 C 83 % 1031,2 hPa 0,0 l/m 0 min 0 min 0 W/m 20,9 km/h (4 Bft)
02.01.2015 20:30 4,2 C 2,2 C 83 % 1031,3 hPa 0,0 l/m 0 min 0 min 0 W/m 18,8 km/h (3 Bft)
02.01.2015 20:32 4,2 C 2,2 C 83 % 1031,4 hPa 0,0 l/m 0 min 0 min 0 W/m 20,9 km/h (4 Bft)
02.01.2015 20:34 4,2 C 2,2 C 83 % 1031,3 hPa 0,0 l/m 0 min 0 min 0 W/m 18,8 km/h (3 Bft)
02.01.2015 20:36 4,2 C 2,2 C 83 % 1031,4 hPa 0,0 l/m 0 min 0 min 0 W/m 18,8 km/h (3 Bft)
02.01.2015 20:38 4,2 C 2,2 C 83 % 1031,3 hPa 0,0 l/m 0 min 0 min 0 W/m 16,7 km/h (3 Bft)
02.01.2015 20:40 4,1 C 2,2 C 83 % 1031,2 hPa 0,0 l/m 0 min 0 min 0 W/m 14,6 km/h (3 Bft)
02.01.2015 20:42 4,1 C 2,2 C 83 % 1031,2 hPa 0,0 l/m 0 min 0 min 0 W/m 16,7 km/h (3 Bft)
02.01.2015 20:44 4,1 C 2,2 C 83 % 1031,3 hPa 0,0 l/m 0 min 0 min 0 W/m 18,8 km/h (3 Bft)
02.01.2015 20:46 4,1 C 2,2 C 83 % 1031,3 hPa 0,0 l/m 0 min 0 min 0 W/m 14,6 km/h (3 Bft)
02.01.2015 20:48 4,1 C 2,2 C 83 % 1031,3 hPa 0,0 l/m 0 min 0 min 0 W/m 18,8 km/h (3 Bft)
02.01.2015 20:50 4,1 C 2,2 C 83 % 1031,4 hPa 0,0 l/m 0 min 0 min 0 W/m 23,0 km/h (4 Bft)
02.01.2015 20:52 4,0 C 2,2 C 84 % 1031,4 hPa 0,0 l/m 0 min 0 min 0 W/m 18,8 km/h (3 Bft)
02.01.2015 20:54 4,0 C 2,2 C 84 % 1031,5 hPa 0,0 l/m 0 min 0 min 0 W/m 14,6 km/h (3 Bft)
02.01.2015 20:56 4,0 C 2,2 C 84 % 1031,4 hPa 0,0 l/m 0 min 0 min 0 W/m 18,8 km/h (3 Bft)
02.01.2015 20:58 4,0 C 2,2 C 84 % 1031,5 hPa 0,0 l/m 0 min 0 min 0 W/m 20,9 km/h (4 Bft)
02.01.2015 21:00 3,9 C 2,2 C 84 % 1031,7 hPa 0,0 l/m 0 min 0 min 0 W/m 20,9 km/h (4 Bft)
02.01.2015 21:02 3,9 C 2,2 C 84 % 1031,5 hPa 0,0 l/m 0 min 0 min 0 W/m 18,8 km/h (3 Bft)
02.01.2015 21:04 3,9 C 2,2 C 84 % 1031,6 hPa 0,0 l/m 0 min 0 min 0 W/m 23,0 km/h (4 Bft)
02.01.2015 21:06 3,9 C 2,2 C 84 % 1031,5 hPa 0,0 l/m 0 min 0 min 0 W/m 18,8 km/h (3 Bft)
02.01.2015 21:08 3,9 C 2,2 C 84 % 1031,5 hPa 0,0 l/m 0 min 0 min 0 W/m 14,6 km/h (3 Bft)
02.01.2015 21:10 3,9 C 2,2 C 84 % 1031,6 hPa 0,0 l/m 0 min 0 min 0 W/m 25,1 km/h (4 Bft)
02.01.2015 21:12 3,9 C 2,2 C 84 % 1031,6 hPa 0,0 l/m 0 min 0 min 0 W/m 20,9 km/h (4 Bft)
02.01.2015 21:14 3,9 C 2,2 C 84 % 1031,7 hPa 0,0 l/m 0 min 0 min 0 W/m 20,9 km/h (4 Bft)
02.01.2015 21:16 3,9 C 2,2 C 84 % 1031,7 hPa 0,0 l/m 0 min 0 min 0 W/m 14,6 km/h (3 Bft)
02.01.2015 21:18 3,9 C 2,2 C 84 % 1031,7 hPa 0,0 l/m 0 min 0 min 0 W/m 23,0 km/h (4 Bft)
02.01.2015 21:20 3,9 C 2,2 C 84 % 1031,7 hPa 0,0 l/m 0 min 0 min 0 W/m 23,0 km/h (4 Bft)
02.01.2015 21:22 3,9 C 2,2 C 84 % 1031,7 hPa 0,0 l/m 0 min 0 min 0 W/m 23,0 km/h (4 Bft)
02.01.2015 21:24 3,9 C 2,2 C 84 % 1031,7 hPa 0,0 l/m 0 min 0 min 0 W/m 20,9 km/h (4 Bft)
02.01.2015 21:26 3,8 C 2,2 C 84 % 1031,8 hPa 0,0 l/m 0 min 0 min 0 W/m 20,9 km/h (4 Bft)
02.01.2015 21:28 3,8 C 2,2 C 84 % 1031,8 hPa 0,0 l/m 0 min 0 min 0 W/m 18,8 km/h (3 Bft)
02.01.2015 21:30 3,8 C 2,2 C 84 % 1031,8 hPa 0,0 l/m 0 min 0 min 0 W/m 16,7 km/h (3 Bft)
02.01.2015 21:32 3,8 C 2,2 C 84 % 1031,8 hPa 0,0 l/m 0 min 0 min 0 W/m 16,7 km/h (3 Bft)
02.01.2015 21:34 3,8 C 2,2 C 84 % 1031,8 hPa 0,0 l/m 0 min 0 min 0 W/m 20,9 km/h (4 Bft)
02.01.2015 21:36 3,8 C 2,2 C 84 % 1031,8 hPa 0,0 l/m 0 min 0 min 0 W/m 20,9 km/h (4 Bft)
02.01.2015 21:38 3,8 C 2,2 C 84 % 1031,8 hPa 0,0 l/m 0 min 0 min 0 W/m 14,6 km/h (3 Bft)
02.01.2015 21:40 3,8 C 2,2 C 84 % 1031,8 hPa 0,0 l/m 0 min 0 min 0 W/m 25,1 km/h (4 Bft)
02.01.2015 21:42 3,8 C 2,2 C 84 % 1031,8 hPa 0,0 l/m 0 min 0 min 0 W/m 20,9 km/h (4 Bft)
02.01.2015 21:44 3,7 C 1,7 C 84 % 1031,8 hPa 0,0 l/m 0 min 0 min 0 W/m 18,8 km/h (3 Bft)
02.01.2015 21:46 3,7 C 2,2 C 85 % 1031,9 hPa 0,0 l/m 0 min 0 min 0 W/m 20,9 km/h (4 Bft)
02.01.2015 21:48 3,7 C 1,7 C 84 % 1031,9 hPa 0,0 l/m 0 min 0 min 0 W/m 16,7 km/h (3 Bft)
02.01.2015 21:50 3,7 C 1,7 C 84 % 1031,9 hPa 0,0 l/m 0 min 0 min 0 W/m 18,8 km/h (3 Bft)
02.01.2015 21:52 3,7 C 1,7 C 84 % 1031,9 hPa 0,0 l/m 0 min 0 min 0 W/m 16,7 km/h (3 Bft)
02.01.2015 21:54 3,7 C 1,7 C 85 % 1032,0 hPa 0,0 l/m 0 min 0 min 0 W/m 14,6 km/h (3 Bft)
02.01.2015 21:56 3,7 C 1,7 C 85 % 1031,9 hPa 0,0 l/m 0 min 0 min 0 W/m 18,8 km/h (3 Bft)
02.01.2015 21:58 3,6 C 1,7 C 85 % 1031,9 hPa 0,0 l/m 0 min 0 min 0 W/m 16,7 km/h (3 Bft)
02.01.2015 22:00 3,6 C 1,7 C 85 % 1032,0 hPa 0,0 l/m 0 min 0 min 0 W/m 16,7 km/h (3 Bft)
02.01.2015 22:02 3,6 C 1,7 C 85 % 1031,9 hPa 0,0 l/m 0 min 0 min 0 W/m 16,7 km/h (3 Bft)
02.01.2015 22:04 3,6 C 1,7 C 85 % 1032,0 hPa 0,0 l/m 0 min 0 min 0 W/m 18,8 km/h (3 Bft)
02.01.2015 22:06 3,6 C 1,7 C 85 % 1032,1 hPa 0,0 l/m 0 min 0 min 0 W/m 16,7 km/h (3 Bft)
02.01.2015 22:08 3,6 C 1,7 C 85 % 1032,1 hPa 0,0 l/m 0 min 0 min 0 W/m 18,8 km/h (3 Bft)
02.01.2015 22:10 3,5 C 1,7 C 85 % 1032,1 hPa 0,0 l/m 0 min 0 min 0 W/m 18,8 km/h (3 Bft)
02.01.2015 22:12 3,5 C 1,7 C 85 % 1032,1 hPa 0,0 l/m 0 min 0 min 0 W/m 20,9 km/h (4 Bft)
02.01.2015 22:14 3,5 C 1,7 C 85 % 1032,1 hPa 0,0 l/m 0 min 0 min 0 W/m 18,8 km/h (3 Bft)
02.01.2015 22:16 3,5 C 1,7 C 85 % 1032,1 hPa 0,0 l/m 0 min 0 min 0 W/m 20,9 km/h (4 Bft)
02.01.2015 22:18 3,5 C 1,7 C 85 % 1032,1 hPa 0,0 l/m 0 min 0 min 0 W/m 18,8 km/h (3 Bft)
02.01.2015 22:20 3,5 C 1,7 C 85 % 1032,2 hPa 0,0 l/m 0 min 0 min 0 W/m 14,6 km/h (3 Bft)
02.01.2015 22:22 3,5 C 1,7 C 85 % 1032,2 hPa 0,0 l/m 0 min 0 min 0 W/m 20,9 km/h (4 Bft)
02.01.2015 22:24 3,4 C 1,7 C 85 % 1032,2 hPa 0,0 l/m 0 min 0 min 0 W/m 18,8 km/h (3 Bft)
02.01.2015 22:26 3,4 C 1,7 C 85 % 1032,1 hPa 0,0 l/m 0 min 0 min 0 W/m 23,0 km/h (4 Bft)
02.01.2015 22:28 3,4 C 1,7 C 85 % 1032,2 hPa 0,0 l/m 0 min 0 min 0 W/m 25,1 km/h (4 Bft)
02.01.2015 22:30 3,4 C 1,7 C 85 % 1032,1 hPa 0,0 l/m 0 min 0 min 0 W/m 16,7 km/h (3 Bft)
02.01.2015 22:32 3,4 C 1,7 C 85 % 1032,1 hPa 0,0 l/m 0 min 0 min 0 W/m 23,0 km/h (4 Bft)
02.01.2015 22:34 3,4 C 2,2 C 85 % 1032,1 hPa 0,0 l/m 0 min 0 min 0 W/m 25,1 km/h (4 Bft)
02.01.2015 22:36 3,5 C 2,2 C 85 % 1032,1 hPa 0,0 l/m 0 min 0 min 0 W/m 18,8 km/h (3 Bft)
02.01.2015 22:38 3,4 C 2,2 C 85 % 1032,1 hPa 0,0 l/m 0 min 0 min 0 W/m 23,0 km/h (4 Bft)
02.01.2015 22:40 3,5 C 2,2 C 85 % 1032,1 hPa 0,0 l/m 0 min 0 min 0 W/m 18,8 km/h (3 Bft)
02.01.2015 22:42 3,4 C 2,2 C 85 % 1032,0 hPa 0,0 l/m 0 min 0 min 0 W/m 18,8 km/h (3 Bft)
02.01.2015 22:44 3,4 C 2,2 C 85 % 1032,1 hPa 0,0 l/m 0 min 0 min 0 W/m 20,9 km/h (4 Bft)
02.01.2015 22:46 3,4 C 1,7 C 85 % 1032,0 hPa 0,0 l/m 0 min 0 min 0 W/m 23,0 km/h (4 Bft)
02.01.2015 22:48 3,4 C 1,7 C 85 % 1032,1 hPa 0,0 l/m 0 min 0 min 0 W/m 18,8 km/h (3 Bft)
02.01.2015 22:50 3,4 C 1,7 C 85 % 1032,1 hPa 0,0 l/m 0 min 0 min 0 W/m 16,7 km/h (3 Bft)
02.01.2015 22:52 3,4 C 1,7 C 85 % 1032,0 hPa 0,0 l/m 0 min 0 min 0 W/m 27,2 km/h (4 Bft)
02.01.2015 22:54 3,4 C 2,2 C 85 % 1031,8 hPa 0,0 l/m 0 min 0 min 0 W/m 27,2 km/h (4 Bft)
02.01.2015 22:56 3,4 C 2,2 C 85 % 1031,8 hPa 0,0 l/m 0 min 0 min 0 W/m 25,1 km/h (4 Bft)
02.01.2015 22:58 3,4 C 2,2 C 85 % 1031,8 hPa 0,0 l/m 0 min 0 min 0 W/m 20,9 km/h (4 Bft)
02.01.2015 23:00 3,4 C 2,2 C 85 % 1031,9 hPa 0,0 l/m 0 min 0 min 0 W/m 20,9 km/h (4 Bft)
02.01.2015 23:02 3,5 C 2,2 C 85 % 1031,8 hPa 0,0 l/m 0 min 0 min 0 W/m 23,0 km/h (4 Bft)
02.01.2015 23:04 3,4 C 1,7 C 85 % 1031,9 hPa 0,0 l/m 0 min 0 min 0 W/m 18,8 km/h (3 Bft)
02.01.2015 23:06 3,4 C 1,7 C 85 % 1031,9 hPa 0,0 l/m 0 min 0 min 0 W/m 23,0 km/h (4 Bft)
02.01.2015 23:08 3,4 C 1,7 C 85 % 1031,8 hPa 0,0 l/m 0 min 0 min 0 W/m 16,7 km/h (3 Bft)
02.01.2015 23:10 3,4 C 1,7 C 85 % 1031,8 hPa 0,0 l/m 0 min 0 min 0 W/m 25,1 km/h (4 Bft)
02.01.2015 23:12 3,4 C 1,7 C 85 % 1031,8 hPa 0,0 l/m 0 min 0 min 0 W/m 16,7 km/h (3 Bft)
02.01.2015 23:14 3,4 C 1,7 C 85 % 1031,8 hPa 0,0 l/m 0 min 0 min 0 W/m 25,1 km/h (4 Bft)
02.01.2015 23:16 3,4 C 1,7 C 85 % 1031,9 hPa 0,0 l/m 0 min 0 min 0 W/m 20,9 km/h (4 Bft)
02.01.2015 23:18 3,4 C 1,7 C 85 % 1031,9 hPa 0,0 l/m 0 min 0 min 0 W/m 14,6 km/h (3 Bft)
02.01.2015 23:20 3,4 C 1,7 C 85 % 1031,9 hPa 0,0 l/m 0 min 0 min 0 W/m 12,6 km/h (3 Bft)
02.01.2015 23:22 3,4 C 1,7 C 85 % 1031,9 hPa 0,0 l/m 0 min 0 min 0 W/m 20,9 km/h (4 Bft)
02.01.2015 23:24 3,4 C 1,7 C 85 % 1031,9 hPa 0,0 l/m 0 min 0 min 0 W/m 12,6 km/h (3 Bft)
02.01.2015 23:26 3,4 C 1,7 C 85 % 1031,9 hPa 0,0 l/m 0 min 0 min 0 W/m 16,7 km/h (3 Bft)
02.01.2015 23:28 3,4 C 1,7 C 85 % 1031,8 hPa 0,0 l/m 0 min 0 min 0 W/m 16,7 km/h (3 Bft)
02.01.2015 23:30 3,4 C 1,7 C 85 % 1031,8 hPa 0,0 l/m 0 min 0 min 0 W/m 23,0 km/h (4 Bft)
02.01.2015 23:32 3,3 C 1,7 C 85 % 1031,9 hPa 0,0 l/m 0 min 0 min 0 W/m 20,9 km/h (4 Bft)
02.01.2015 23:34 3,4 C 1,7 C 85 % 1031,9 hPa 0,0 l/m 0 min 0 min 0 W/m 25,1 km/h (4 Bft)
02.01.2015 23:36 3,3 C 1,7 C 85 % 1031,9 hPa 0,0 l/m 0 min 0 min 0 W/m 18,8 km/h (3 Bft)
02.01.2015 23:38 3,3 C 1,7 C 85 % 1031,9 hPa 0,0 l/m 0 min 0 min 0 W/m 20,9 km/h (4 Bft)
02.01.2015 23:40 3,3 C 1,7 C 85 % 1031,8 hPa 0,0 l/m 0 min 0 min 0 W/m 18,8 km/h (3 Bft)
02.01.2015 23:42 3,3 C 1,7 C 85 % 1031,8 hPa 0,0 l/m 0 min 0 min 0 W/m 18,8 km/h (3 Bft)
02.01.2015 23:44 3,3 C 1,7 C 85 % 1031,8 hPa 0,0 l/m 0 min 0 min 0 W/m 16,7 km/h (3 Bft)
02.01.2015 23:46 3,3 C 1,7 C 85 % 1031,9 hPa 0,0 l/m 0 min 0 min 0 W/m 14,6 km/h (3 Bft)
02.01.2015 23:48 3,3 C 1,7 C 85 % 1031,9 hPa 0,0 l/m 0 min 0 min 0 W/m 16,7 km/h (3 Bft)
02.01.2015 23:50 3,3 C 1,7 C 85 % 1032,1 hPa 0,0 l/m 0 min 0 min 0 W/m 18,8 km/h (3 Bft)
02.01.2015 23:52 3,3 C 1,7 C 85 % 1032,1 hPa 0,0 l/m 0 min 0 min 0 W/m 23,0 km/h (4 Bft)
02.01.2015 23:54 3,2 C 1,7 C 85 % 1032,1 hPa 0,0 l/m 0 min 0 min 0 W/m 18,8 km/h (3 Bft)
02.01.2015 23:56 3,2 C 1,7 C 85 % 1032,1 hPa 0,0 l/m 0 min 0 min 0 W/m 12,6 km/h (3 Bft)
02.01.2015 23:58 3,2 C 1,7 C 85 % 1032,2 hPa 0,0 l/m 0 min 0 min 0 W/m 14,6 km/h (3 Bft)
_ Min-Zeit 00:00 21:44 01:02 06:16 - - - - 15:10
Minimum _ 2,6 C 1,7 C 67 % 1021,7 hPa - - - - 8,4 km/h (2 Bft)
_ Max-Zeit 12:58 12:54 11:34 22:20 05:36 12:38 04:12 12:54 06:06
Maximum _ 8,2 C 7,2 C 98 % 1032,2 hPa 0,2 l/m 2 min 2 min 260 W/m 66,6 km/h
SW (8 Bft)
Durchschnitt _ 5,6 C 3,7 C 84 % 1026,5 hPa #2,6 l/m #1:54 h #4:18 h 67 W/m 26,2 km/h (4 Bft)
© 2015 W. Hausmann